| time (UTC) | temp C | wind direction | speed KPH | gust KPH | rain 1hr cm | rain 24hr cm | rain mn cm | humidity % | barometer mb |
| 20260901201322 | 15 | 270 | 0.0 | 0.0 | 0.00 | 0.36 | 0.00 | 87 | 1064.1 |
| 20260901201208 | 15 | 225 | 8.0 | 0.0 | 0.00 | 0.36 | 0.00 | 87 | 1064.1 |
| 20260901201047 | 15 | 247 | 0.0 | 0.0 | 0.00 | 0.36 | 0.00 | 86 | 1064.1 |
| 20260901200934 | 15 | 270 | 0.0 | 0.0 | 0.00 | 0.36 | 0.00 | 86 | 1064.1 |
| 20260901200814 | 15 | 247 | 0.0 | 0.0 | 0.00 | 0.36 | 0.00 | 86 | 1064.1 |
| 20260901200708 | 15 | 247 | 0.0 | 0.0 | 0.00 | 0.36 | 0.00 | 86 | 1064.1 |
| 20260901200547 | 15 | 247 | 0.0 | 0.0 | 0.00 | 0.36 | 0.00 | 86 | 1064.1 |
| 20260901200434 | 15 | 247 | 0.0 | 0.0 | 0.00 | 0.36 | 0.00 | 86 | 1064.0 |
| 20260901200321 | 15 | 270 | 0.0 | 0.0 | 0.00 | 0.36 | 0.00 | 86 | 1064.0 |
| 20260901200159 | 15 | 247 | 0.0 | 0.0 | 0.00 | 0.36 | 0.00 | 86 | 1064.0 |
| 20260901200046 | 15 | 247 | 0.0 | 0.0 | 0.00 | 0.36 | 0.00 | 86 | 1064.0 |
| 20260901195935 | 15 | 225 | 8.0 | 0.0 | 0.00 | 0.36 | 0.00 | 86 | 1064.0 |
| 20260901195829 | 15 | 247 | 0.0 | 0.0 | 0.00 | 0.36 | 0.00 | 86 | 1064.0 |
| 20260901195723 | 15 | 247 | 0.0 | 0.0 | 0.00 | 0.36 | 0.00 | 86 | 1064.0 |
| 20260901195610 | 15 | 247 | 0.0 | 0.0 | 0.00 | 0.36 | 0.00 | 86 | 1064.0 |
| 20260901195505 | 15 | 270 | 0.0 | 0.0 | 0.00 | 0.36 | 0.00 | 86 | 1063.9 |
| 20260901195354 | 15 | 247 | 6.4 | 0.0 | 0.00 | 0.36 | 0.00 | 86 | 1064.0 |
| 20260901195247 | 15 | 292 | 0.0 | 0.0 | 0.00 | 0.36 | 0.00 | 86 | 1064.0 |
| 20260901195134 | 15 | 270 | 6.4 | 0.0 | 0.00 | 0.36 | 0.00 | 86 | 1063.9 |
| 20260901195021 | 15 | 270 | 0.0 | 0.0 | 0.00 | 0.36 | 0.00 | 86 | 1063.9 |
| 20260901194859 | 15 | 247 | 3.2 | 0.0 | 0.00 | 0.36 | 0.00 | 85 | 1063.9 |
| 20260901194738 | 16 | 270 | 0.0 | 0.0 | 0.00 | 0.36 | 0.00 | 85 | 1063.9 |
| 20260901194630 | 16 | 270 | 0.0 | 0.0 | 0.00 | 0.36 | 0.00 | 85 | 1063.9 |
| 20260901194509 | 16 | 270 | 4.8 | 0.0 | 0.00 | 0.36 | 0.00 | 85 | 1064.0 |
| 20260901194356 | 16 | 270 | 3.2 | 0.0 | 0.00 | 0.36 | 0.00 | 85 | 1063.9 |
| 20260901194250 | 16 | 270 | 0.0 | 0.0 | 0.00 | 0.36 | 0.00 | 84 | 1064.0 |
| 20260901194136 | 16 | 270 | 0.0 | 0.0 | 0.00 | 0.36 | 0.00 | 84 | 1063.9 |
| 20260901194029 | 16 | 292 | 4.8 | 0.0 | 0.00 | 0.36 | 0.00 | 84 | 1064.0 |
| 20260901193853 | 16 | 247 | 6.4 | 0.0 | 0.00 | 0.36 | 0.00 | 84 | 1063.9 |
| 20260901193746 | 16 | 247 | 0.0 | 0.0 | 0.00 | 0.36 | 0.00 | 84 | 1064.0 |
| 20260901193625 | 16 | 270 | 0.0 | 0.0 | 0.00 | 0.36 | 0.00 | 84 | 1063.9 |
| 20260901193504 | 16 | 270 | 0.0 | 0.0 | 0.00 | 0.36 | 0.00 | 84 | 1063.9 |
| 20260901193335 | 16 | 292 | 0.0 | 0.0 | 0.00 | 0.36 | 0.00 | 84 | 1063.9 |
| 20260901193222 | 16 | 292 | 0.0 | 0.0 | 0.00 | 0.36 | 0.00 | 84 | 1063.9 |
| 20260901193116 | 16 | 270 | 3.2 | 0.0 | 0.00 | 0.36 | 0.00 | 83 | 1063.9 |
| 20260901193010 | 16 | 270 | 0.0 | 0.0 | 0.00 | 0.36 | 0.00 | 83 | 1063.9 |
| 20260901192841 | 16 | 270 | 0.0 | 0.0 | 0.00 | 0.36 | 0.00 | 83 | 1063.9 |
| 20260901192728 | 16 | 292 | 8.0 | 0.0 | 0.00 | 0.36 | 0.00 | 83 | 1063.9 |
| 20260901192614 | 16 | 247 | 8.0 | 0.0 | 0.00 | 0.36 | 0.00 | 83 | 1063.9 |
| 20260901192454 | 16 | 292 | 0.0 | 0.0 | 0.00 | 0.36 | 0.00 | 83 | 1063.9 |
| 20260901192348 | 16 | 270 | 6.4 | 0.0 | 0.00 | 0.36 | 0.00 | 83 | 1063.9 |
| 20260901192235 | 16 | 247 | 0.0 | 0.0 | 0.00 | 0.36 | 0.00 | 83 | 1063.9 |
| 20260901192130 | 16 | 270 | 4.8 | 0.0 | 0.00 | 0.36 | 0.00 | 82 | 1063.9 |
| 20260901192011 | 16 | 315 | 6.4 | 0.0 | 0.00 | 0.36 | 0.00 | 82 | 1063.9 |
| 20260901191906 | 16 | 337 | 0.0 | 0.0 | 0.00 | 0.36 | 0.00 | 82 | 1063.9 |
| 20260901191759 | 16 | 270 | 0.0 | 0.0 | 0.00 | 0.36 | 0.00 | 82 | 1063.9 |
| 20260901191638 | 16 | 337 | 8.0 | 0.0 | 0.00 | 0.36 | 0.00 | 82 | 1063.9 |
| 20260901191533 | 16 | 270 | 0.0 | 0.0 | 0.00 | 0.36 | 0.00 | 82 | 1063.9 |
| 20260901191421 | 16 | 270 | 0.0 | 0.0 | 0.00 | 0.36 | 0.00 | 82 | 1063.9 |
| 20260901191316 | 16 | 292 | 0.0 | 0.0 | 0.00 | 0.36 | 0.00 | 82 | 1063.9 |
| 20260901191201 | 16 | 247 | 0.0 | 0.0 | 0.00 | 0.36 | 0.00 | 82 | 1063.9 |
| 20260901191040 | 16 | 292 | 9.7 | 0.0 | 0.00 | 0.36 | 0.00 | 82 | 1063.9 |
| 20260901190919 | 16 | 270 | 0.0 | 0.0 | 0.00 | 0.36 | 0.00 | 82 | 1063.9 |
| 20260901190808 | 16 | 270 | 0.0 | 0.0 | 0.00 | 0.36 | 0.00 | 82 | 1063.9 |
| 20260901190701 | 16 | 247 | 4.8 | 0.0 | 0.00 | 0.36 | 0.00 | 81 | 1063.9 |
| 20260901190558 | 16 | 270 | 0.0 | 0.0 | 0.00 | 0.36 | 0.00 | 81 | 1063.9 |
| 20260901190451 | 16 | 270 | 3.2 | 0.0 | 0.00 | 0.36 | 0.00 | 81 | 1063.9 |
| 20260901190321 | 16 | 292 | 0.0 | 0.0 | 0.00 | 0.36 | 0.00 | 81 | 1063.9 |
| 20260901190208 | 16 | 270 | 0.0 | 0.0 | 0.00 | 0.36 | 0.00 | 81 | 1063.9 |
| 20260901190055 | 16 | 270 | 0.0 | 0.0 | 0.00 | 0.36 | 0.00 | 81 | 1063.9 |
| 20260901185951 | 16 | 270 | 4.8 | 0.0 | 0.00 | 0.46 | 0.00 | 80 | 1064.0 |
| 20260901185845 | 16 | 292 | 6.4 | 0.0 | 0.00 | 0.46 | 0.00 | 80 | 1063.9 |
| 20260901185733 | 16 | 270 | 9.7 | 0.0 | 0.00 | 0.46 | 0.00 | 80 | 1063.9 |
| 20260901185627 | 16 | 247 | 11.3 | 0.0 | 0.00 | 0.46 | 0.00 | 80 | 1063.9 |
| 20260901185514 | 16 | 270 | 4.8 | 0.0 | 0.00 | 0.46 | 0.00 | 80 | 1063.9 |
| 20260901185402 | 16 | 292 | 4.8 | 0.0 | 0.00 | 0.46 | 0.00 | 80 | 1063.9 |
| 20260901185257 | 16 | 292 | 3.2 | 0.0 | 0.00 | 0.46 | 0.00 | 80 | 1063.8 |
| 20260901185153 | 16 | 270 | 6.4 | 0.0 | 0.00 | 0.46 | 0.00 | 80 | 1063.9 |
| 20260901185046 | 17 | 270 | 4.8 | 0.0 | 0.00 | 0.46 | 0.00 | 80 | 1063.9 |
| 20260901184934 | 17 | 292 | 4.8 | 0.0 | 0.00 | 0.46 | 0.00 | 80 | 1063.8 |
| 20260901184828 | 17 | 270 | 8.0 | 0.0 | 0.00 | 0.46 | 0.00 | 79 | 1063.9 |
| 20260901184723 | 17 | 270 | 8.0 | 0.0 | 0.00 | 0.46 | 0.00 | 79 | 1063.9 |
| 20260901184616 | 17 | 270 | 4.8 | 0.0 | 0.00 | 0.46 | 0.00 | 79 | 1063.9 |
| 20260901184511 | 17 | 292 | 0.0 | 0.0 | 0.00 | 0.46 | 0.00 | 79 | 1063.9 |
| 20260901184405 | 17 | 270 | 4.8 | 0.0 | 0.00 | 0.46 | 0.00 | 78 | 1063.9 |
| 20260901184259 | 17 | 315 | 9.7 | 0.0 | 0.00 | 0.46 | 0.00 | 78 | 1063.9 |
| 20260901184152 | 17 | 315 | 8.0 | 0.0 | 0.00 | 0.46 | 0.00 | 78 | 1063.9 |
| 20260901184037 | 17 | 292 | 6.4 | 0.0 | 0.00 | 0.46 | 0.00 | 78 | 1063.9 |
| 20260901183915 | 17 | 270 | 0.0 | 0.0 | 0.00 | 0.46 | 0.00 | 78 | 1063.9 |
| 20260901183801 | 17 | 315 | 11.3 | 0.0 | 0.00 | 0.46 | 0.00 | 78 | 1063.9 |
| 20260901183654 | 17 | 292 | 0.0 | 0.0 | 0.00 | 0.46 | 0.00 | 78 | 1063.9 |
| 20260901183533 | 17 | 270 | 8.0 | 0.0 | 0.00 | 0.46 | 0.00 | 78 | 1063.9 |
| 20260901183411 | 17 | 292 | 9.7 | 0.0 | 0.00 | 0.46 | 0.00 | 78 | 1063.8 |
| 20260901183305 | 17 | 270 | 8.0 | 0.0 | 0.00 | 0.46 | 0.00 | 78 | 1063.8 |
| 20260901183159 | 17 | 270 | 6.4 | 0.0 | 0.00 | 0.46 | 0.00 | 78 | 1063.8 |
| 20260901183053 | 17 | 270 | 3.2 | 0.0 | 0.00 | 0.46 | 0.00 | 78 | 1063.8 |
| 20260901182948 | 17 | 270 | 6.4 | 0.0 | 0.00 | 0.46 | 0.00 | 78 | 1063.9 |
| 20260901182841 | 17 | 270 | 11.3 | 0.0 | 0.00 | 0.46 | 0.00 | 78 | 1063.8 |
| 20260901182736 | 17 | 292 | 11.3 | 0.0 | 0.00 | 0.46 | 0.00 | 78 | 1063.9 |
| 20260901182629 | 17 | 270 | 9.7 | 0.0 | 0.00 | 0.46 | 0.00 | 77 | 1063.9 |
| 20260901182516 | 17 | 202 | 4.8 | 0.0 | 0.00 | 0.46 | 0.00 | 77 | 1063.9 |
| 20260901182403 | 17 | 315 | 4.8 | 0.0 | 0.00 | 0.46 | 0.00 | 77 | 1063.9 |
| 20260901182250 | 17 | 270 | 12.9 | 0.0 | 0.00 | 0.46 | 0.00 | 77 | 1063.9 |
| 20260901182137 | 17 | 270 | 0.0 | 0.0 | 0.00 | 0.46 | 0.00 | 77 | 1063.8 |
| 20260901182032 | 17 | 270 | 8.0 | 0.0 | 0.00 | 0.46 | 0.00 | 76 | 1063.8 |
| 20260901181919 | 17 | 270 | 3.2 | 0.0 | 0.00 | 0.46 | 0.00 | 76 | 1063.8 |
| 20260901181806 | 17 | 247 | 4.8 | 0.0 | 0.00 | 0.46 | 0.00 | 76 | 1063.8 |
| 20260901181655 | 17 | 270 | 8.0 | 0.0 | 0.00 | 0.46 | 0.00 | 76 | 1063.8 |
| 20260901181548 | 17 | 292 | 8.0 | 0.0 | 0.00 | 0.46 | 0.00 | 75 | 1063.8 |
| 20260901181435 | 17 | 315 | 8.0 | 0.0 | 0.00 | 0.46 | 0.00 | 75 | 1063.8 |
| 20260901181329 | 17 | 315 | 0.0 | 0.0 | 0.00 | 0.46 | 0.00 | 75 | 1063.9 |
| 20260901181217 | 17 | 292 | 0.0 | 0.0 | 0.00 | 0.46 | 0.00 | 75 | 1063.8 |
| 20260901181114 | 17 | 270 | 0.0 | 0.0 | 0.00 | 0.46 | 0.00 | 75 | 1063.8 |
| 20260901181008 | 17 | 292 | 0.0 | 0.0 | 0.00 | 0.46 | 0.00 | 74 | 1063.8 |
| 20260901180853 | 17 | 292 | 0.0 | 0.0 | 0.00 | 0.46 | 0.00 | 74 | 1063.9 |
| 20260901180740 | 17 | 315 | 0.0 | 0.0 | 0.00 | 0.46 | 0.00 | 74 | 1063.8 |
| 20260901180628 | 17 | 315 | 0.0 | 0.0 | 0.00 | 0.46 | 0.00 | 74 | 1063.9 |
| 20260901180522 | 17 | 337 | 6.4 | 0.0 | 0.00 | 0.46 | 0.00 | 73 | 1063.8 |
| 20260901180401 | 17 | 270 | 8.0 | 0.0 | 0.00 | 0.46 | 0.00 | 73 | 1063.8 |
| 20260901180135 | 17 | 292 | 9.7 | 0.0 | 0.00 | 0.46 | 0.00 | 73 | 1063.8 |
| 20260901180030 | 17 | 292 | 6.4 | 0.0 | 0.00 | 0.46 | 0.00 | 73 | 1063.8 |
| 20260901175908 | 17 | 292 | 0.0 | 0.0 | 0.00 | 0.51 | 0.00 | 72 | 1063.8 |
| 20260901175747 | 17 | 315 | 1.6 | 0.0 | 0.00 | 0.51 | 0.00 | 73 | 1063.8 |
| 20260901175634 | 17 | 315 | 14.5 | 0.0 | 0.00 | 0.51 | 0.00 | 73 | 1063.8 |
| 20260901175520 | 17 | 270 | 14.5 | 0.0 | 0.00 | 0.51 | 0.00 | 72 | 1063.8 |
| 20260901175358 | 17 | 315 | 4.8 | 0.0 | 0.00 | 0.51 | 0.00 | 72 | 1063.7 |
| 20260901175251 | 17 | 315 | 9.7 | 0.0 | 0.00 | 0.51 | 0.00 | 72 | 1063.8 |
| 20260901175140 | 17 | 292 | 9.7 | 0.0 | 0.00 | 0.51 | 0.00 | 72 | 1063.7 |
| 20260901175033 | 17 | 292 | 3.2 | 0.0 | 0.00 | 0.51 | 0.00 | 73 | 1063.8 |
| 20260901174911 | 17 | 337 | 9.7 | 0.0 | 0.00 | 0.51 | 0.00 | 73 | 1063.8 |
| 20260901174806 | 17 | 315 | 0.0 | 0.0 | 0.00 | 0.51 | 0.00 | 73 | 1063.7 |
| 20260901174652 | 17 | 292 | 16.1 | 0.0 | 0.00 | 0.51 | 0.00 | 73 | 1063.7 |
| 20260901174530 | 18 | 315 | 0.0 | 0.0 | 0.00 | 0.51 | 0.00 | 72 | 1063.7 |
| 20260901174424 | 18 | 292 | 0.0 | 0.0 | 0.00 | 0.51 | 0.00 | 72 | 1063.8 |
| 20260901174311 | 18 | 247 | 8.0 | 0.0 | 0.00 | 0.51 | 0.00 | 72 | 1063.8 |
| 20260901174207 | 18 | 292 | 9.7 | 0.0 | 0.00 | 0.51 | 0.00 | 71 | 1063.7 |
| 20260901174100 | 18 | 292 | 9.7 | 0.0 | 0.00 | 0.51 | 0.00 | 71 | 1063.7 |
| 20260901173947 | 18 | 247 | 9.7 | 0.0 | 0.00 | 0.51 | 0.00 | 71 | 1063.7 |
| 20260901173833 | 18 | 292 | 9.7 | 0.0 | 0.00 | 0.51 | 0.00 | 71 | 1063.7 |
| 20260901173712 | 18 | 292 | 14.5 | 0.0 | 0.00 | 0.51 | 0.00 | 71 | 1063.7 |
| 20260901173558 | 18 | 270 | 11.3 | 0.0 | 0.00 | 0.51 | 0.00 | 72 | 1063.7 |
| 20260901173444 | 18 | 247 | 6.4 | 0.0 | 0.00 | 0.51 | 0.00 | 71 | 1063.7 |
| 20260901173333 | 18 | 315 | 0.0 | 0.0 | 0.00 | 0.51 | 0.00 | 71 | 1063.7 |
| 20260901173218 | 18 | 292 | 16.1 | 0.0 | 0.00 | 0.51 | 0.00 | 71 | 1063.7 |
| 20260901173105 | 18 | 270 | 12.9 | 0.0 | 0.00 | 0.51 | 0.00 | 71 | 1063.7 |
| 20260901173000 | 18 | 292 | 12.9 | 0.0 | 0.00 | 0.51 | 0.00 | 71 | 1063.7 |
| 20260901172839 | 18 | 292 | 6.4 | 0.0 | 0.00 | 0.51 | 0.00 | 71 | 1063.7 |
| 20260901172717 | 18 | 337 | 6.4 | 0.0 | 0.00 | 0.51 | 0.00 | 71 | 1063.7 |
| 20260901172604 | 18 | 180 | 6.4 | 0.0 | 0.00 | 0.51 | 0.00 | 71 | 1063.7 |
| 20260901172454 | 18 | 292 | 9.7 | 0.0 | 0.00 | 0.51 | 0.00 | 72 | 1063.7 |
| 20260901172346 | 18 | 292 | 0.0 | 0.0 | 0.00 | 0.51 | 0.00 | 72 | 1063.7 |
| 20260901172236 | 18 | 292 | 12.9 | 0.0 | 0.00 | 0.51 | 0.00 | 72 | 1063.7 |
| 20260901172128 | 18 | 270 | 9.7 | 0.0 | 0.00 | 0.51 | 0.00 | 73 | 1063.7 |
| 20260901172015 | 18 | 315 | 4.8 | 0.0 | 0.00 | 0.51 | 0.00 | 73 | 1063.7 |
| 20260901171856 | 18 | 202 | 8.0 | 0.0 | 0.00 | 0.51 | 0.00 | 73 | 1063.6 |
| 20260901171743 | 18 | 225 | 3.2 | 0.0 | 0.00 | 0.51 | 0.00 | 73 | 1063.6 |
| 20260901171637 | 18 | 292 | 9.7 | 0.0 | 0.00 | 0.51 | 0.00 | 73 | 1063.6 |
| 20260901171529 | 18 | 270 | 9.7 | 0.0 | 0.00 | 0.51 | 0.00 | 72 | 1063.6 |
| 20260901171415 | 18 | 292 | 16.1 | 0.0 | 0.00 | 0.51 | 0.00 | 72 | 1063.7 |
| 20260901171310 | 18 | 270 | 14.5 | 0.0 | 0.00 | 0.51 | 0.00 | 72 | 1063.6 |
| 20260901171134 | 18 | 292 | 20.9 | 0.0 | 0.00 | 0.51 | 0.00 | 72 | 1063.6 |
| 20260901171019 | 18 | 0 | 12.9 | 0.0 | 0.00 | 0.51 | 0.00 | 72 | 1063.6 |
| 20260901170858 | 18 | 0 | 0.0 | 0.0 | 0.00 | 0.51 | 0.00 | 71 | 1063.6 |
| 20260901170742 | 18 | 292 | 11.3 | 0.0 | 0.00 | 0.51 | 0.00 | 71 | 1063.6 |
| 20260901170628 | 18 | 247 | 8.0 | 0.0 | 0.00 | 0.51 | 0.00 | 71 | 1063.6 |
| 20260901170518 | 18 | 315 | 8.0 | 0.0 | 0.00 | 0.51 | 0.00 | 70 | 1063.5 |
| 20260901170410 | 18 | 292 | 9.7 | 0.0 | 0.00 | 0.51 | 0.00 | 70 | 1063.6 |
| 20260901170258 | 18 | 292 | 8.0 | 0.0 | 0.00 | 0.51 | 0.00 | 70 | 1063.6 |
| 20260901170153 | 18 | 270 | 0.0 | 0.0 | 0.00 | 0.51 | 0.00 | 69 | 1063.6 |
| 20260901170039 | 18 | 315 | 9.7 | 0.0 | 0.00 | 0.51 | 0.00 | 69 | 1063.6 |
| 20260901165926 | 18 | 292 | 8.0 | 0.0 | 0.00 | 0.84 | 0.00 | 69 | 1063.6 |
| 20260901165815 | 18 | 270 | 0.0 | 0.0 | 0.00 | 0.84 | 0.00 | 68 | 1063.6 |
| 20260901165708 | 19 | 270 | 9.7 | 0.0 | 0.00 | 0.84 | 0.00 | 68 | 1063.5 |
| 20260901165555 | 19 | 270 | 0.0 | 0.0 | 0.00 | 0.84 | 0.00 | 68 | 1063.7 |
| 20260901165441 | 19 | 315 | 6.4 | 0.0 | 0.00 | 0.84 | 0.00 | 68 | 1063.6 |
| 20260901165320 | 19 | 292 | 12.9 | 0.0 | 0.00 | 0.84 | 0.00 | 68 | 1063.5 |
| 20260901165207 | 19 | 315 | 12.9 | 0.0 | 0.00 | 0.84 | 0.00 | 68 | 1063.6 |
| 20260901165054 | 19 | 270 | 11.3 | 0.0 | 0.00 | 0.84 | 0.00 | 67 | 1063.6 |
| 20260901164949 | 19 | 315 | 6.4 | 0.0 | 0.00 | 0.84 | 0.00 | 67 | 1063.6 |
| 20260901164828 | 19 | 270 | 0.0 | 0.0 | 0.00 | 0.84 | 0.00 | 66 | 1063.5 |
| 20260901164715 | 19 | 292 | 11.3 | 0.0 | 0.00 | 0.84 | 0.00 | 66 | 1063.5 |
| 20260901164602 | 20 | 315 | 11.3 | 0.0 | 0.00 | 0.84 | 0.00 | 66 | 1063.5 |
| 20260901164456 | 20 | 292 | 6.4 | 0.0 | 0.00 | 0.84 | 0.00 | 66 | 1063.5 |
| 20260901164350 | 20 | 315 | 9.7 | 0.0 | 0.00 | 0.84 | 0.00 | 66 | 1063.5 |
| 20260901164238 | 20 | 315 | 8.0 | 0.0 | 0.00 | 0.84 | 0.00 | 66 | 1063.5 |
| 20260901164126 | 20 | 337 | 0.0 | 0.0 | 0.00 | 0.84 | 0.00 | 67 | 1063.6 |
| 20260901164019 | 20 | 315 | 0.0 | 0.0 | 0.00 | 0.84 | 0.00 | 67 | 1063.5 |
| 20260901163906 | 20 | 292 | 8.0 | 0.0 | 0.00 | 0.84 | 0.00 | 68 | 1063.5 |
| 20260901163753 | 20 | 0 | 0.0 | 0.0 | 0.00 | 0.84 | 0.00 | 67 | 1063.5 |
| 20260901163649 | 20 | 315 | 8.0 | 0.0 | 0.00 | 0.84 | 0.00 | 67 | 1063.6 |
| 20260901163545 | 20 | 270 | 9.7 | 0.0 | 0.00 | 0.84 | 0.00 | 67 | 1063.5 |
| 20260901163438 | 20 | 315 | 8.0 | 0.0 | 0.00 | 0.84 | 0.00 | 67 | 1063.5 |
| 20260901163317 | 20 | 315 | 16.1 | 0.0 | 0.00 | 0.84 | 0.00 | 67 | 1063.5 |
| 20260901163204 | 20 | 270 | 20.9 | 0.0 | 0.00 | 0.84 | 0.00 | 67 | 1063.5 |
| 20260901163051 | 20 | 337 | 8.0 | 0.0 | 0.00 | 0.84 | 0.00 | 67 | 1063.5 |
| 20260901162947 | 20 | 292 | 8.0 | 0.0 | 0.00 | 0.84 | 0.00 | 67 | 1063.5 |
| 20260901162840 | 20 | 270 | 19.3 | 0.0 | 0.00 | 0.84 | 0.00 | 66 | 1063.5 |
| 20260901162719 | 20 | 247 | 6.4 | 0.0 | 0.00 | 0.84 | 0.00 | 66 | 1063.4 |
| 20260901162558 | 19 | 202 | 0.0 | 0.0 | 0.00 | 0.84 | 0.00 | 67 | 1063.4 |
| 20260901162437 | 19 | 270 | 8.0 | 0.0 | 0.00 | 0.84 | 0.00 | 67 | 1063.4 |
| 20260901162324 | 19 | 247 | 3.2 | 0.0 | 0.00 | 0.84 | 0.00 | 66 | 1063.4 |
| 20260901162211 | 19 | 315 | 14.5 | 0.0 | 0.00 | 0.84 | 0.00 | 66 | 1063.5 |
| 20260901162107 | 19 | 315 | 6.4 | 0.0 | 0.00 | 0.84 | 0.00 | 65 | 1063.4 |
| 20260901162001 | 19 | 337 | 0.0 | 0.0 | 0.00 | 0.84 | 0.00 | 65 | 1063.4 |
| 20260901161856 | 19 | 270 | 9.7 | 0.0 | 0.00 | 0.84 | 0.00 | 64 | 1063.5 |
| 20260901161752 | 20 | 292 | 0.0 | 0.0 | 0.00 | 0.84 | 0.00 | 64 | 1063.5 |
| 20260901161646 | 20 | 292 | 6.4 | 0.0 | 0.00 | 0.84 | 0.00 | 64 | 1063.5 |
| 20260901161541 | 20 | 292 | 8.0 | 0.0 | 0.00 | 0.84 | 0.00 | 64 | 1063.5 |
| 20260901161436 | 20 | 292 | 6.4 | 0.0 | 0.00 | 0.84 | 0.00 | 64 | 1063.5 |
| 20260901161332 | 20 | 292 | 9.7 | 0.0 | 0.00 | 0.84 | 0.00 | 64 | 1063.4 |
| 20260901161225 | 20 | 315 | 11.3 | 0.0 | 0.00 | 0.84 | 0.00 | 64 | 1063.4 |
| 20260901161056 | 20 | 270 | 19.3 | 0.0 | 0.00 | 0.84 | 0.00 | 65 | 1063.5 |
| 20260901160943 | 20 | 0 | 6.4 | 0.0 | 0.00 | 0.84 | 0.00 | 66 | 1063.5 |
| 20260901160837 | 20 | 292 | 12.9 | 0.0 | 0.00 | 0.84 | 0.00 | 66 | 1063.5 |
| 20260901160730 | 20 | 292 | 12.9 | 0.0 | 0.00 | 0.84 | 0.00 | 65 | 1063.4 |
| 20260901160600 | 20 | 247 | 0.0 | 0.0 | 0.00 | 0.84 | 0.00 | 65 | 1063.4 |
| 20260901160447 | 20 | 270 | 11.3 | 0.0 | 0.00 | 0.84 | 0.00 | 64 | 1063.4 |
| 20260901160341 | 20 | 315 | 6.4 | 0.0 | 0.00 | 0.84 | 0.00 | 64 | 1063.5 |
| 20260901160213 | 20 | 292 | 19.3 | 0.0 | 0.00 | 0.84 | 0.00 | 64 | 1063.5 |
| 20260901160059 | 20 | 337 | 8.0 | 0.0 | 0.00 | 0.84 | 0.00 | 64 | 1063.5 |
| 20260901155954 | 20 | 315 | 0.0 | 0.0 | 0.00 | 0.89 | 0.00 | 63 | 1063.4 |
| 20260901155840 | 20 | 270 | 0.0 | 0.0 | 0.00 | 0.89 | 0.00 | 62 | 1063.5 |
| 20260901155711 | 20 | 315 | 11.3 | 0.0 | 0.00 | 0.89 | 0.00 | 62 | 1063.4 |
| 20260901155550 | 21 | 270 | 9.7 | 0.0 | 0.00 | 0.89 | 0.00 | 63 | 1063.4 |
| 20260901155430 | 21 | 292 | 17.7 | 0.0 | 0.00 | 0.89 | 0.00 | 63 | 1063.3 |
| 20260901155317 | 21 | 270 | 0.0 | 0.0 | 0.00 | 0.89 | 0.00 | 63 | 1063.3 |
| 20260901155154 | 20 | 315 | 8.0 | 0.0 | 0.00 | 0.89 | 0.00 | 63 | 1063.4 |
| 20260901155026 | 21 | 337 | 12.9 | 0.0 | 0.00 | 0.89 | 0.00 | 62 | 1063.4 |
| 20260901154924 | 20 | 270 | 8.0 | 0.0 | 0.00 | 0.89 | 0.00 | 62 | 1063.4 |
| 20260901154816 | 20 | 270 | 16.1 | 0.0 | 0.00 | 0.89 | 0.00 | 63 | 1063.4 |
| 20260901154712 | 20 | 292 | 11.3 | 0.0 | 0.00 | 0.89 | 0.00 | 63 | 1063.3 |
| 20260901154558 | 20 | 315 | 9.7 | 0.0 | 0.00 | 0.89 | 0.00 | 64 | 1063.4 |
| 20260901154444 | 20 | 270 | 9.7 | 0.0 | 0.00 | 0.89 | 0.00 | 63 | 1063.4 |
| 20260901154330 | 20 | 292 | 0.0 | 0.0 | 0.00 | 0.89 | 0.00 | 63 | 1063.4 |
| 20260901154153 | 21 | 337 | 0.0 | 0.0 | 0.00 | 0.89 | 0.00 | 63 | 1063.3 |
| 20260901154032 | 21 | 337 | 9.7 | 0.0 | 0.00 | 0.89 | 0.00 | 63 | 1063.3 |
| 20260901153919 | 21 | 270 | 0.0 | 0.0 | 0.00 | 0.89 | 0.00 | 63 | 1063.3 |
| 20260901153806 | 21 | 270 | 12.9 | 0.0 | 0.00 | 0.89 | 0.00 | 63 | 1063.4 |
| 20260901153653 | 21 | 292 | 11.3 | 0.0 | 0.00 | 0.89 | 0.00 | 62 | 1063.4 |
| 20260901153548 | 21 | 292 | 8.0 | 0.0 | 0.00 | 0.89 | 0.00 | 62 | 1063.3 |
| 20260901153427 | 21 | 315 | 14.5 | 0.0 | 0.00 | 0.89 | 0.00 | 62 | 1063.3 |
| 20260901153322 | 21 | 315 | 8.0 | 0.0 | 0.00 | 0.89 | 0.00 | 61 | 1063.4 |
| 20260901153217 | 21 | 292 | 17.7 | 0.0 | 0.00 | 0.89 | 0.00 | 62 | 1063.3 |
| 20260901153056 | 21 | 292 | 6.4 | 0.0 | 0.00 | 0.89 | 0.00 | 62 | 1063.3 |
| 20260901152950 | 21 | 270 | 8.0 | 0.0 | 0.00 | 0.89 | 0.00 | 61 | 1063.4 |
| 20260901152829 | 21 | 292 | 16.1 | 0.0 | 0.00 | 0.89 | 0.00 | 61 | 1063.2 |
| 20260901152702 | 21 | 270 | 14.5 | 0.0 | 0.00 | 0.89 | 0.00 | 61 | 1063.2 |
| 20260901152546 | 21 | 315 | 12.9 | 0.0 | 0.00 | 0.89 | 0.00 | 62 | 1063.3 |
| 20260901152417 | 21 | 337 | 0.0 | 0.0 | 0.00 | 0.89 | 0.00 | 62 | 1063.3 |
| 20260901152306 | 21 | 292 | 9.7 | 0.0 | 0.00 | 0.89 | 0.00 | 62 | 1063.3 |
| 20260901152159 | 21 | 292 | 3.2 | 0.0 | 0.00 | 0.89 | 0.00 | 61 | 1063.4 |
| 20260901152040 | 21 | 270 | 19.3 | 0.0 | 0.00 | 0.89 | 0.00 | 61 | 1063.3 |
| 20260901151933 | 21 | 0 | 9.7 | 0.0 | 0.00 | 0.89 | 0.00 | 60 | 1063.3 |
| 20260901151819 | 21 | 247 | 17.7 | 0.0 | 0.00 | 0.89 | 0.00 | 60 | 1063.3 |
| 20260901151700 | 21 | 292 | 22.5 | 0.0 | 0.00 | 0.89 | 0.00 | 60 | 1063.2 |
| 20260901151545 | 21 | 292 | 9.7 | 0.0 | 0.00 | 0.89 | 0.00 | 60 | 1063.2 |
| 20260901151425 | 21 | 247 | 20.9 | 0.0 | 0.00 | 0.89 | 0.00 | 60 | 1063.1 |
| 20260901151311 | 21 | 315 | 12.9 | 0.0 | 0.00 | 0.89 | 0.00 | 60 | 1063.1 |
| 20260901151150 | 21 | 292 | 14.5 | 0.0 | 0.00 | 0.89 | 0.00 | 60 | 1063.2 |
| 20260901151037 | 21 | 292 | 12.9 | 0.0 | 0.00 | 0.89 | 0.00 | 60 | 1063.1 |
| 20260901150923 | 21 | 247 | 6.4 | 0.0 | 0.00 | 0.89 | 0.00 | 61 | 1063.1 |
| 20260901150754 | 21 | 292 | 9.7 | 0.0 | 0.00 | 0.89 | 0.00 | 62 | 1063.1 |
| 20260901150641 | 21 | 315 | 0.0 | 0.0 | 0.00 | 0.89 | 0.00 | 63 | 1063.1 |
| 20260901150528 | 21 | 315 | 12.9 | 0.0 | 0.00 | 0.89 | 0.00 | 62 | 1063.1 |
| 20260901150415 | 21 | 292 | 14.5 | 0.0 | 0.00 | 0.89 | 0.00 | 61 | 1063.1 |
| 20260901150255 | 21 | 315 | 9.7 | 0.0 | 0.00 | 0.89 | 0.00 | 60 | 1063.0 |
| 20260901150151 | 21 | 270 | 8.0 | 0.0 | 0.00 | 0.89 | 0.00 | 60 | 1063.0 |
| 20260901150043 | 21 | 315 | 3.2 | 0.0 | 0.00 | 0.89 | 0.00 | 60 | 1063.0 |
| 20260901145923 | 21 | 270 | 6.4 | 0.0 | 0.00 | 1.14 | 0.00 | 61 | 1063.0 |
| 20260901145810 | 21 | 337 | 16.1 | 0.0 | 0.00 | 1.14 | 0.00 | 61 | 1063.0 |
| 20260901145649 | 22 | 315 | 11.3 | 0.0 | 0.00 | 1.14 | 0.00 | 60 | 1063.0 |
| 20260901145522 | 22 | 337 | 20.9 | 0.0 | 0.00 | 1.14 | 0.00 | 60 | 1063.0 |
| 20260901145408 | 22 | 0 | 17.7 | 0.0 | 0.00 | 1.14 | 0.00 | 61 | 1063.0 |
| 20260901145246 | 22 | 292 | 17.7 | 0.0 | 0.00 | 1.14 | 0.00 | 61 | 1063.0 |
| 20260901145127 | 22 | 292 | 9.7 | 0.0 | 0.00 | 1.14 | 0.00 | 62 | 1062.9 |
| 20260901145020 | 22 | 270 | 12.9 | 0.0 | 0.00 | 1.14 | 0.00 | 62 | 1063.0 |
| 20260901144859 | 22 | 315 | 11.3 | 0.0 | 0.00 | 1.14 | 0.00 | 61 | 1062.9 |
| 20260901144756 | 22 | 292 | 4.8 | 0.0 | 0.00 | 1.14 | 0.00 | 61 | 1062.8 |
| 20260901144648 | 22 | 337 | 9.7 | 0.0 | 0.00 | 1.14 | 0.00 | 61 | 1062.9 |
| 20260901144527 | 22 | 315 | 9.7 | 0.0 | 0.00 | 1.14 | 0.00 | 61 | 1063.0 |
| 20260901144414 | 21 | 337 | 8.0 | 0.0 | 0.00 | 1.14 | 0.00 | 62 | 1063.0 |
| 20260901144304 | 21 | 270 | 9.7 | 0.0 | 0.00 | 1.14 | 0.00 | 62 | 1062.9 |
| 20260901144157 | 21 | 270 | 9.7 | 0.0 | 0.00 | 1.14 | 0.00 | 62 | 1063.0 |
| 20260901144051 | 21 | 247 | 3.2 | 0.0 | 0.00 | 1.14 | 0.00 | 62 | 1062.9 |
| 20260901143946 | 21 | 0 | 0.0 | 0.0 | 0.00 | 1.14 | 0.00 | 61 | 1062.9 |
| 20260901143817 | 21 | 315 | 17.7 | 0.0 | 0.00 | 1.14 | 0.00 | 61 | 1062.9 |
| 20260901143704 | 21 | 292 | 25.7 | 0.0 | 0.00 | 1.14 | 0.00 | 62 | 1062.9 |
| 20260901143558 | 21 | 315 | 8.0 | 0.0 | 0.00 | 1.14 | 0.00 | 62 | 1062.9 |
| 20260901143440 | 21 | 270 | 6.4 | 0.0 | 0.00 | 1.14 | 0.00 | 62 | 1062.9 |
| 20260901143334 | 21 | 315 | 20.9 | 0.0 | 0.00 | 1.14 | 0.00 | 63 | 1062.9 |
| 20260901143221 | 21 | 270 | 20.9 | 0.0 | 0.00 | 1.14 | 0.00 | 64 | 1063.0 |
| 20260901143114 | 21 | 270 | 12.9 | 0.0 | 0.00 | 1.14 | 0.00 | 65 | 1062.9 |
| 20260901143001 | 21 | 292 | 17.7 | 0.0 | 0.00 | 1.14 | 0.00 | 65 | 1062.9 |
| 20260901142856 | 21 | 270 | 17.7 | 0.0 | 0.00 | 1.14 | 0.00 | 65 | 1062.9 |
| 20260901142751 | 20 | 270 | 0.0 | 0.0 | 0.00 | 1.14 | 0.00 | 65 | 1062.9 |
| 20260901142645 | 20 | 315 | 9.7 | 0.0 | 0.00 | 1.14 | 0.00 | 65 | 1062.9 |
| 20260901142517 | 20 | 292 | 14.5 | 0.0 | 0.00 | 1.14 | 0.00 | 65 | 1062.9 |
| 20260901142412 | 20 | 315 | 12.9 | 0.0 | 0.00 | 1.14 | 0.00 | 65 | 1062.9 |
| 20260901142301 | 20 | 247 | 25.7 | 0.0 | 0.00 | 1.14 | 0.00 | 64 | 1063.0 |
| 20260901142152 | 21 | 292 | 12.9 | 0.0 | 0.00 | 1.14 | 0.00 | 63 | 1062.9 |
| 20260901142040 | 21 | 292 | 16.1 | 0.0 | 0.00 | 1.14 | 0.00 | 64 | 1062.9 |
| 20260901141918 | 21 | 315 | 16.1 | 0.0 | 0.00 | 1.14 | 0.00 | 65 | 1063.0 |
| 20260901141759 | 20 | 270 | 0.0 | 0.0 | 0.00 | 1.14 | 0.00 | 65 | 1062.9 |
| 20260901141654 | 20 | 337 | 8.0 | 0.0 | 0.00 | 1.14 | 0.00 | 64 | 1062.7 |
| 20260901141547 | 20 | 292 | 8.0 | 0.0 | 0.00 | 1.14 | 0.00 | 64 | 1062.9 |
| 20260901141426 | 20 | 292 | 17.7 | 0.0 | 0.00 | 1.14 | 0.00 | 64 | 1062.8 |
| 20260901141323 | 20 | 247 | 6.4 | 0.0 | 0.00 | 1.14 | 0.00 | 65 | 1062.9 |
| 20260901141218 | 20 | 315 | 9.7 | 0.0 | 0.00 | 1.14 | 0.00 | 65 | 1062.9 |
| 20260901141102 | 20 | 292 | 14.5 | 0.0 | 0.00 | 1.14 | 0.00 | 64 | 1062.9 |
| 20260901140957 | 20 | 315 | 8.0 | 0.0 | 0.00 | 1.14 | 0.00 | 64 | 1062.9 |
| 20260901140846 | 20 | 315 | 12.9 | 0.0 | 0.00 | 1.14 | 0.00 | 63 | 1062.9 |
| 20260901140740 | 20 | 337 | 8.0 | 0.0 | 0.00 | 1.14 | 0.00 | 63 | 1062.8 |
| 20260901140620 | 20 | 315 | 9.7 | 0.0 | 0.00 | 1.14 | 0.00 | 63 | 1062.9 |
| 20260901140515 | 20 | 292 | 17.7 | 0.0 | 0.00 | 1.14 | 0.00 | 63 | 1062.9 |
| 20260901140408 | 20 | 292 | 4.8 | 0.0 | 0.00 | 1.14 | 0.00 | 63 | 1062.9 |
| 20260901140255 | 20 | 135 | 0.0 | 0.0 | 0.00 | 1.14 | 0.00 | 63 | 1062.8 |
| 20260901140150 | 20 | 270 | 12.9 | 0.0 | 0.00 | 1.14 | 0.00 | 63 | 1062.8 |
| 20260901140028 | 21 | 270 | 20.9 | 0.0 | 0.00 | 1.14 | 0.00 | 62 | 1062.8 |
| 20260901135908 | 21 | 292 | 11.3 | 0.0 | 0.00 | 1.14 | 0.00 | 62 | 1062.9 |
| 20260901135802 | 21 | 292 | 14.5 | 0.0 | 0.00 | 1.14 | 0.00 | 62 | 1062.8 |
| 20260901135650 | 21 | 292 | 16.1 | 0.0 | 0.00 | 1.14 | 0.00 | 62 | 1062.9 |
| 20260901135546 | 21 | 315 | 9.7 | 0.0 | 0.00 | 1.14 | 0.00 | 62 | 1062.9 |
| 20260901135441 | 21 | 292 | 19.3 | 0.0 | 0.00 | 1.14 | 0.00 | 62 | 1062.7 |
| 20260901135335 | 21 | 292 | 12.9 | 0.0 | 0.00 | 1.14 | 0.00 | 63 | 1062.8 |
| 20260901135231 | 21 | 270 | 9.7 | 0.0 | 0.00 | 1.14 | 0.00 | 63 | 1062.9 |
| 20260901135126 | 21 | 247 | 8.0 | 0.0 | 0.00 | 1.14 | 0.00 | 62 | 1062.8 |
| 20260901135010 | 20 | 292 | 3.2 | 0.0 | 0.00 | 1.14 | 0.00 | 62 | 1062.8 |
| 20260901134849 | 20 | 292 | 0.0 | 0.0 | 0.00 | 1.14 | 0.00 | 61 | 1062.8 |
| 20260901134720 | 20 | 292 | 19.3 | 0.0 | 0.00 | 1.14 | 0.00 | 62 | 1062.8 |
| 20260901134607 | 20 | 292 | 30.6 | 0.0 | 0.00 | 1.14 | 0.00 | 62 | 1062.7 |
| 20260901134456 | 20 | 292 | 8.0 | 0.0 | 0.00 | 1.14 | 0.00 | 62 | 1062.7 |
| 20260901134352 | 20 | 315 | 16.1 | 0.0 | 0.00 | 1.14 | 0.00 | 62 | 1062.8 |
| 20260901134246 | 20 | 337 | 14.5 | 0.0 | 0.00 | 1.14 | 0.00 | 61 | 1062.8 |
| 20260901134133 | 20 | 292 | 6.4 | 0.0 | 0.00 | 1.14 | 0.00 | 61 | 1062.7 |
| 20260901134018 | 20 | 315 | 29.0 | 0.0 | 0.00 | 1.14 | 0.00 | 61 | 1062.7 |
| 20260901133905 | 20 | 270 | 12.9 | 0.0 | 0.00 | 1.14 | 0.00 | 61 | 1062.7 |
| 20260901133744 | 20 | 315 | 14.5 | 0.0 | 0.00 | 1.14 | 0.00 | 62 | 1062.7 |
| 20260901133630 | 20 | 270 | 24.1 | 0.0 | 0.00 | 1.14 | 0.00 | 63 | 1062.7 |
| 20260901133517 | 20 | 270 | 11.3 | 0.0 | 0.00 | 1.14 | 0.00 | 63 | 1062.6 |
| 20260901133413 | 20 | 337 | 8.0 | 0.0 | 0.00 | 1.14 | 0.00 | 62 | 1062.6 |
| 20260901133307 | 20 | 292 | 11.3 | 0.0 | 0.00 | 1.14 | 0.00 | 63 | 1062.8 |
| 20260901133154 | 20 | 270 | 9.7 | 0.0 | 0.00 | 1.14 | 0.00 | 63 | 1062.6 |
| 20260901133043 | 20 | 315 | 6.4 | 0.0 | 0.00 | 1.14 | 0.00 | 63 | 1062.6 |
| 20260901132928 | 20 | 0 | 9.7 | 0.0 | 0.00 | 1.14 | 0.00 | 63 | 1062.6 |
| 20260901132815 | 20 | 270 | 14.5 | 0.0 | 0.00 | 1.14 | 0.00 | 63 | 1062.7 |
| 20260901132653 | 20 | 247 | 24.1 | 0.0 | 0.00 | 1.14 | 0.00 | 63 | 1062.6 |
| 20260901132531 | 20 | 270 | 9.7 | 0.0 | 0.00 | 1.14 | 0.00 | 63 | 1062.7 |
| 20260901132410 | 21 | 292 | 12.9 | 0.0 | 0.00 | 1.14 | 0.00 | 63 | 1062.7 |
| 20260901132250 | 21 | 247 | 12.9 | 0.0 | 0.00 | 1.14 | 0.00 | 63 | 1062.7 |
| 20260901132145 | 21 | 247 | 19.3 | 0.0 | 0.00 | 1.14 | 0.00 | 63 | 1062.7 |
| 20260901132025 | 20 | 292 | 9.7 | 0.0 | 0.00 | 1.14 | 0.00 | 64 | 1062.6 |
| 20260901131910 | 20 | 270 | 8.0 | 0.0 | 0.00 | 1.14 | 0.00 | 64 | 1062.6 |
| 20260901131757 | 20 | 292 | 14.5 | 0.0 | 0.00 | 1.14 | 0.00 | 64 | 1062.6 |
| 20260901131638 | 20 | 292 | 11.3 | 0.0 | 0.00 | 1.14 | 0.00 | 65 | 1062.7 |
| 20260901131533 | 20 | 270 | 0.0 | 0.0 | 0.00 | 1.14 | 0.00 | 65 | 1062.6 |
| 20260901131426 | 20 | 0 | 0.0 | 0.0 | 0.00 | 1.14 | 0.00 | 64 | 1062.6 |
| 20260901131306 | 20 | 292 | 6.4 | 0.0 | 0.00 | 1.14 | 0.00 | 65 | 1062.7 |
| 20260901131200 | 20 | 315 | 16.1 | 0.0 | 0.00 | 1.14 | 0.00 | 65 | 1062.7 |
| 20260901131055 | 20 | 315 | 8.0 | 0.0 | 0.00 | 1.14 | 0.00 | 65 | 1062.7 |
| 20260901130942 | 20 | 292 | 16.1 | 0.0 | 0.00 | 1.14 | 0.00 | 65 | 1062.6 |
| 20260901130830 | 20 | 270 | 9.7 | 0.0 | 0.00 | 1.14 | 0.00 | 64 | 1062.6 |
| 20260901130726 | 20 | 270 | 0.0 | 0.0 | 0.00 | 1.14 | 0.00 | 64 | 1062.5 |
| 20260901130610 | 20 | 0 | 6.4 | 0.0 | 0.00 | 1.14 | 0.00 | 64 | 1062.6 |
| 20260901130456 | 21 | 292 | 25.7 | 0.0 | 0.00 | 1.14 | 0.00 | 63 | 1062.6 |
| 20260901130345 | 21 | 270 | 17.7 | 0.0 | 0.00 | 1.14 | 0.00 | 63 | 1062.6 |
| 20260901130230 | 21 | 315 | 20.9 | 0.0 | 0.00 | 1.14 | 0.00 | 62 | 1062.6 |
| 20260901130109 | 21 | 292 | 11.3 | 0.0 | 0.00 | 1.14 | 0.00 | 61 | 1062.5 |
| 20260901125956 | 21 | 337 | 0.0 | 0.0 | 0.00 | 1.14 | 0.00 | 61 | 1062.5 |
| 20260901125843 | 21 | 315 | 8.0 | 0.0 | 0.00 | 1.14 | 0.00 | 61 | 1062.6 |
| 20260901125722 | 21 | 315 | 17.7 | 0.0 | 0.00 | 1.14 | 0.00 | 62 | 1062.5 |
| 20260901125553 | 21 | 315 | 22.5 | 0.0 | 0.00 | 1.14 | 0.00 | 62 | 1062.6 |
| 20260901125441 | 21 | 292 | 16.1 | 0.0 | 0.00 | 1.14 | 0.00 | 63 | 1062.5 |
| 20260901125312 | 21 | 315 | 9.7 | 0.0 | 0.00 | 1.14 | 0.00 | 62 | 1062.6 |
| 20260901125152 | 21 | 315 | 4.8 | 0.0 | 0.00 | 1.14 | 0.00 | 62 | 1062.5 |
| 20260901125037 | 21 | 270 | 12.9 | 0.0 | 0.00 | 1.14 | 0.00 | 62 | 1062.5 |
| 20260901124915 | 21 | 225 | 9.7 | 0.0 | 0.00 | 1.14 | 0.00 | 62 | 1062.5 |
| 20260901124755 | 21 | 292 | 8.0 | 0.0 | 0.00 | 1.14 | 0.00 | 61 | 1062.6 |
| 20260901124648 | 21 | 292 | 19.3 | 0.0 | 0.00 | 1.14 | 0.00 | 61 | 1062.5 |
| 20260901124528 | 21 | 315 | 14.5 | 0.0 | 0.00 | 1.14 | 0.00 | 60 | 1062.5 |
| 20260901124421 | 21 | 292 | 6.4 | 0.0 | 0.00 | 1.14 | 0.00 | 60 | 1062.5 |
| 20260901124302 | 21 | 0 | 17.7 | 0.0 | 0.00 | 1.14 | 0.00 | 60 | 1062.4 |
| 20260901124155 | 21 | 292 | 17.7 | 0.0 | 0.00 | 1.14 | 0.00 | 60 | 1062.5 |
| 20260901124043 | 21 | 315 | 17.7 | 0.0 | 0.00 | 1.14 | 0.00 | 60 | 1062.5 |
| 20260901123930 | 21 | 315 | 6.4 | 0.0 | 0.00 | 1.14 | 0.00 | 59 | 1062.5 |
| 20260901123825 | 21 | 337 | 4.8 | 0.0 | 0.00 | 1.14 | 0.00 | 58 | 1062.6 |
| 20260901123711 | 21 | 292 | 12.9 | 0.0 | 0.00 | 1.14 | 0.00 | 58 | 1062.5 |
| 20260901123558 | 21 | 315 | 20.9 | 0.0 | 0.00 | 1.14 | 0.00 | 58 | 1062.6 |
| 20260901123445 | 22 | 292 | 9.7 | 0.0 | 0.00 | 1.14 | 0.00 | 59 | 1062.5 |
| 20260901123332 | 22 | 270 | 19.3 | 0.0 | 0.00 | 1.14 | 0.00 | 60 | 1062.5 |
| 20260901123218 | 22 | 292 | 16.1 | 0.0 | 0.00 | 1.14 | 0.00 | 59 | 1062.5 |
| 20260901123107 | 22 | 292 | 11.3 | 0.0 | 0.00 | 1.14 | 0.00 | 59 | 1062.6 |
| 20260901123001 | 22 | 292 | 4.8 | 0.0 | 0.00 | 1.14 | 0.00 | 58 | 1062.5 |
| 20260901122839 | 22 | 247 | 19.3 | 0.0 | 0.00 | 1.14 | 0.00 | 58 | 1062.5 |
| 20260901122720 | 22 | 292 | 6.4 | 0.0 | 0.00 | 1.14 | 0.00 | 57 | 1062.5 |
| 20260901122608 | 22 | 247 | 16.1 | 0.0 | 0.00 | 1.14 | 0.00 | 58 | 1062.5 |
| 20260901122500 | 22 | 270 | 11.3 | 0.0 | 0.00 | 1.14 | 0.00 | 57 | 1062.5 |
| 20260901122347 | 22 | 315 | 9.7 | 0.0 | 0.00 | 1.14 | 0.00 | 56 | 1062.6 |
| 20260901122241 | 22 | 337 | 9.7 | 0.0 | 0.00 | 1.14 | 0.00 | 56 | 1062.6 |
| 20260901122115 | 22 | 315 | 24.1 | 0.0 | 0.00 | 1.14 | 0.00 | 57 | 1062.5 |
| 20260901122007 | 22 | 292 | 20.9 | 0.0 | 0.00 | 1.14 | 0.00 | 56 | 1062.6 |
| 20260901121841 | 22 | 270 | 24.1 | 0.0 | 0.00 | 1.14 | 0.00 | 56 | 1062.5 |
| 20260901121735 | 22 | 315 | 8.0 | 0.0 | 0.00 | 1.14 | 0.00 | 56 | 1062.6 |
| 20260901121629 | 22 | 292 | 17.7 | 0.0 | 0.00 | 1.14 | 0.00 | 57 | 1062.5 |
| 20260901121524 | 22 | 292 | 12.9 | 0.0 | 0.00 | 1.14 | 0.00 | 57 | 1062.6 |
| 20260901121410 | 22 | 292 | 0.0 | 0.0 | 0.00 | 1.14 | 0.00 | 58 | 1062.5 |
| 20260901121257 | 22 | 247 | 11.3 | 0.0 | 0.00 | 1.14 | 0.00 | 57 | 1062.5 |
| 20260901121152 | 22 | 247 | 14.5 | 0.0 | 0.00 | 1.14 | 0.00 | 58 | 1062.5 |
| 20260901121039 | 22 | 0 | 8.0 | 0.0 | 0.00 | 1.14 | 0.00 | 59 | 1062.5 |
| 20260901120918 | 22 | 292 | 11.3 | 0.0 | 0.00 | 1.14 | 0.00 | 60 | 1062.5 |
| 20260901120759 | 22 | 270 | 9.7 | 0.0 | 0.00 | 1.14 | 0.00 | 61 | 1062.5 |
| 20260901120654 | 22 | 270 | 9.7 | 0.0 | 0.00 | 1.14 | 0.00 | 61 | 1062.5 |
| 20260901120543 | 22 | 292 | 6.4 | 0.0 | 0.00 | 1.14 | 0.00 | 61 | 1062.5 |
| 20260901120437 | 22 | 292 | 9.7 | 0.0 | 0.00 | 1.14 | 0.00 | 61 | 1062.5 |
| 20260901120326 | 22 | 247 | 20.9 | 0.0 | 0.00 | 1.14 | 0.00 | 62 | 1062.5 |
| 20260901120218 | 22 | 315 | 14.5 | 0.0 | 0.00 | 1.14 | 0.00 | 62 | 1062.5 |
| 20260901120103 | 22 | 292 | 14.5 | 0.0 | 0.00 | 1.14 | 0.00 | 62 | 1062.5 |
| 20260901115935 | 22 | 315 | 8.0 | 0.0 | 0.00 | 1.14 | 0.00 | 62 | 1062.4 |
| 20260901115813 | 22 | 337 | 11.3 | 0.0 | 0.00 | 1.14 | 0.00 | 62 | 1062.6 |
| 20260901115653 | 22 | 270 | 3.2 | 0.0 | 0.00 | 1.14 | 0.00 | 63 | 1062.5 |
| 20260901115540 | 22 | 337 | 8.0 | 0.0 | 0.00 | 1.14 | 0.00 | 63 | 1062.4 |
| 20260901115436 | 22 | 292 | 8.0 | 0.0 | 0.00 | 1.14 | 0.00 | 63 | 1062.4 |
| 20260901115330 | 22 | 270 | 24.1 | 0.0 | 0.00 | 1.14 | 0.00 | 62 | 1062.4 |
| 20260901115210 | 22 | 315 | 9.7 | 0.0 | 0.00 | 1.14 | 0.00 | 62 | 1062.4 |
| 20260901115104 | 22 | 315 | 9.7 | 0.0 | 0.00 | 1.14 | 0.00 | 62 | 1062.5 |
| 20260901114951 | 22 | 337 | 9.7 | 0.0 | 0.00 | 1.14 | 0.00 | 62 | 1062.5 |
| 20260901114838 | 22 | 292 | 14.5 | 0.0 | 0.00 | 1.14 | 0.00 | 62 | 1062.5 |
| 20260901114732 | 22 | 337 | 19.3 | 0.0 | 0.00 | 1.14 | 0.00 | 62 | 1062.4 |
| 20260901114618 | 22 | 292 | 9.7 | 0.0 | 0.00 | 1.14 | 0.00 | 62 | 1062.4 |
| 20260901114458 | 22 | 315 | 12.9 | 0.0 | 0.00 | 1.14 | 0.00 | 63 | 1062.4 |
| 20260901114336 | 22 | 292 | 11.3 | 0.0 | 0.00 | 1.14 | 0.00 | 63 | 1062.3 |
| 20260901114225 | 22 | 315 | 6.4 | 0.0 | 0.00 | 1.14 | 0.00 | 64 | 1062.3 |
| 20260901114118 | 22 | 337 | 11.3 | 0.0 | 0.00 | 1.14 | 0.00 | 66 | 1062.4 |
| 20260901113958 | 21 | 0 | 4.8 | 0.0 | 0.00 | 1.14 | 0.00 | 65 | 1062.3 |
| 20260901113853 | 21 | 270 | 6.4 | 0.0 | 0.00 | 1.14 | 0.00 | 65 | 1062.4 |
| 20260901113732 | 21 | 315 | 19.3 | 0.0 | 0.00 | 1.14 | 0.00 | 65 | 1062.4 |
| 20260901113617 | 21 | 315 | 8.0 | 0.0 | 0.00 | 1.14 | 0.00 | 65 | 1062.4 |
| 20260901113503 | 21 | 0 | 6.4 | 0.0 | 0.00 | 1.14 | 0.00 | 65 | 1062.4 |
| 20260901113344 | 21 | 292 | 9.7 | 0.0 | 0.00 | 1.14 | 0.00 | 66 | 1062.4 |
| 20260901113237 | 21 | 270 | 20.9 | 0.0 | 0.00 | 1.14 | 0.00 | 68 | 1062.4 |
| 20260901113051 | 20 | 337 | 183.5 | 0.0 | 0.00 | 1.14 | 0.00 | 70 | 1062.4 |
| 20260901112439 | 20 | 337 | 4.8 | 0.0 | 0.00 | 1.14 | 0.00 | 70 | 1062.3 |
| 20260901112333 | 20 | 315 | 11.3 | 0.0 | 0.00 | 1.14 | 0.00 | 70 | 1062.2 |
| 20260901112211 | 20 | 337 | 6.4 | 0.0 | 0.00 | 1.14 | 0.00 | 70 | 1062.2 |
| 20260901112058 | 20 | 292 | 6.4 | 0.0 | 0.00 | 1.14 | 0.00 | 70 | 1062.2 |
| 20260901111953 | 20 | 337 | 9.7 | 0.0 | 0.00 | 1.14 | 0.00 | 71 | 1062.1 |
| 20260901111743 | 19 | 247 | 183.5 | 0.0 | 0.00 | 1.14 | 0.00 | 74 | 1062.1 |
| 20260901111129 | 19 | 247 | 183.5 | 0.0 | 0.05 | 1.14 | 0.00 | 75 | 1062.1 |
| 20260901110526 | 19 | 247 | 183.5 | 0.0 | 0.05 | 1.14 | 0.00 | 78 | 1062.0 |
| 20260901105902 | 18 | 247 | 183.5 | 0.0 | 0.05 | 1.14 | 0.00 | 81 | 1062.0 |
| 20260901105247 | 18 | 247 | 183.5 | 0.0 | 0.05 | 1.14 | 0.00 | 83 | 1061.9 |
| 20260901104601 | 17 | 247 | 183.5 | 0.0 | 0.10 | 1.14 | 0.00 | 86 | 1061.8 |
| 20260901103931 | 17 | 247 | 183.5 | 0.0 | 0.15 | 1.14 | 0.00 | 88 | 1061.9 |
| 20260901103317 | 16 | 247 | 183.5 | 0.0 | 0.15 | 1.14 | 0.00 | 90 | 1061.8 |
| 20260901102658 | 16 | 247 | 183.5 | 0.0 | 0.20 | 1.14 | 0.00 | 91 | 1061.7 |
| 20260901102049 | 16 | 247 | 183.5 | 0.0 | 0.20 | 1.14 | 0.00 | 91 | 1061.7 |
| 20260901101428 | 16 | 247 | 9.7 | 0.0 | 0.15 | 1.09 | 0.00 | 91 | 1061.6 |
| 20260901101322 | 16 | 202 | 8.0 | 0.0 | 0.15 | 1.09 | 0.00 | 91 | 1061.5 |
| 20260901101145 | 16 | 292 | 14.5 | 0.0 | 0.15 | 1.09 | 0.00 | 91 | 1061.5 |
| 20260901100959 | 16 | 270 | 8.0 | 0.0 | 0.15 | 1.09 | 0.00 | 91 | 1061.5 |
| 20260901100852 | 16 | 247 | 9.7 | 0.0 | 0.15 | 1.09 | 0.00 | 91 | 1061.5 |
| 20260901100738 | 16 | 270 | 14.5 | 0.0 | 0.15 | 1.09 | 0.00 | 91 | 1061.5 |
| 20260901100617 | 16 | 225 | 4.8 | 0.0 | 0.15 | 1.09 | 0.00 | 91 | 1061.5 |
| 20260901100505 | 16 | 292 | 6.4 | 0.0 | 0.15 | 1.09 | 0.00 | 91 | 1061.5 |
| 20260901100357 | 16 | 315 | 22.5 | 0.0 | 0.15 | 1.09 | 0.00 | 90 | 1061.5 |
| 20260901100246 | 16 | 225 | 22.5 | 0.0 | 0.15 | 1.09 | 0.00 | 90 | 1061.5 |
| 20260901100139 | 16 | 270 | 20.9 | 0.0 | 0.15 | 1.09 | 0.00 | 90 | 1061.5 |
| 20260901100025 | 16 | 247 | 1.6 | 0.0 | 0.15 | 1.09 | 0.00 | 90 | 1061.5 |
| 20260901095913 | 16 | 247 | 6.4 | 0.0 | 0.15 | 1.09 | 0.00 | 91 | 1061.5 |
| 20260901095759 | 16 | 247 | 16.1 | 0.0 | 0.15 | 1.09 | 0.00 | 91 | 1061.5 |
| 20260901095652 | 16 | 270 | 16.1 | 0.0 | 0.15 | 1.09 | 0.00 | 91 | 1061.5 |
| 20260901095523 | 16 | 247 | 14.5 | 0.0 | 0.15 | 1.09 | 0.00 | 90 | 1061.5 |
| 20260901095411 | 16 | 247 | 19.3 | 0.0 | 0.15 | 1.09 | 0.00 | 90 | 1061.4 |
| 20260901095306 | 16 | 247 | 24.1 | 0.0 | 0.15 | 1.09 | 0.00 | 90 | 1061.5 |
| 20260901095159 | 16 | 292 | 9.7 | 0.0 | 0.15 | 1.09 | 0.00 | 90 | 1061.4 |
| 20260901095053 | 16 | 292 | 9.7 | 0.0 | 0.10 | 1.04 | 0.00 | 90 | 1061.4 |
| 20260901094947 | 16 | 270 | 20.9 | 0.0 | 0.10 | 1.04 | 0.00 | 90 | 1061.5 |
| 20260901094827 | 16 | 337 | 12.9 | 0.0 | 0.10 | 1.04 | 0.00 | 90 | 1061.4 |
| 20260901094720 | 16 | 270 | 17.7 | 0.0 | 0.10 | 1.04 | 0.00 | 90 | 1061.3 |
| 20260901094606 | 16 | 225 | 9.7 | 0.0 | 0.10 | 1.04 | 0.00 | 90 | 1061.4 |
| 20260901094453 | 16 | 292 | 12.9 | 0.0 | 0.10 | 1.04 | 0.00 | 90 | 1061.3 |
| 20260901094342 | 16 | 247 | 11.3 | 0.0 | 0.05 | 0.99 | 0.00 | 89 | 1061.3 |
| 20260901094230 | 16 | 270 | 17.7 | 0.0 | 0.05 | 0.99 | 0.00 | 89 | 1061.3 |
| 20260901094104 | 16 | 292 | 20.9 | 0.0 | 0.05 | 0.99 | 0.00 | 89 | 1061.4 |
| 20260901093950 | 16 | 292 | 19.3 | 0.0 | 0.05 | 0.99 | 0.00 | 89 | 1061.4 |
| 20260901093838 | 16 | 247 | 8.0 | 0.0 | 0.05 | 0.99 | 0.00 | 88 | 1061.3 |
| 20260901093725 | 16 | 225 | 9.7 | 0.0 | 0.05 | 0.99 | 0.00 | 88 | 1061.3 |
| 20260901093612 | 16 | 247 | 8.0 | 0.0 | 0.05 | 0.99 | 0.00 | 88 | 1061.3 |
| 20260901093506 | 16 | 157 | 0.0 | 0.0 | 0.00 | 0.94 | 0.00 | 87 | 1061.4 |
| 20260901093346 | 16 | 270 | 8.0 | 0.0 | 0.00 | 0.94 | 0.00 | 87 | 1061.3 |
| 20260901093241 | 16 | 247 | 17.7 | 0.0 | 0.00 | 0.94 | 0.00 | 87 | 1061.3 |
| 20260901093135 | 16 | 270 | 14.5 | 0.0 | 0.00 | 0.94 | 0.00 | 87 | 1061.4 |
| 20260901093022 | 17 | 247 | 9.7 | 0.0 | 0.00 | 0.94 | 0.00 | 86 | 1061.4 |
| 20260901092902 | 17 | 270 | 16.1 | 0.0 | 0.00 | 0.94 | 0.00 | 86 | 1061.4 |
| 20260901092740 | 17 | 247 | 12.9 | 0.0 | 0.00 | 0.94 | 0.00 | 85 | 1061.4 |
| 20260901092618 | 17 | 270 | 9.7 | 0.0 | 0.00 | 0.94 | 0.00 | 84 | 1061.4 |
| 20260901092449 | 17 | 270 | 8.0 | 0.0 | 0.00 | 0.94 | 0.00 | 82 | 1061.4 |
| 20260901092328 | 17 | 315 | 9.7 | 0.0 | 0.00 | 0.94 | 0.00 | 82 | 1061.5 |
| 20260901092216 | 17 | 270 | 9.7 | 0.0 | 0.00 | 0.94 | 0.00 | 81 | 1061.4 |
| 20260901092100 | 18 | 292 | 8.0 | 0.0 | 0.00 | 0.94 | 0.00 | 80 | 1061.5 |
| 20260901091954 | 18 | 315 | 9.7 | 0.0 | 0.00 | 0.94 | 0.00 | 79 | 1061.5 |
| 20260901091848 | 18 | 315 | 14.5 | 0.0 | 0.00 | 0.94 | 0.00 | 78 | 1061.4 |
| 20260901091719 | 18 | 135 | 0.0 | 0.0 | 0.00 | 0.94 | 0.00 | 77 | 1061.3 |
| 20260901091614 | 19 | 315 | 14.5 | 0.0 | 0.00 | 0.94 | 0.00 | 76 | 1061.3 |
| 20260901091500 | 19 | 292 | 14.5 | 0.0 | 0.00 | 0.94 | 0.00 | 75 | 1061.3 |
| 20260901091333 | 19 | 270 | 24.1 | 0.0 | 0.00 | 0.94 | 0.00 | 74 | 1061.3 |
| 20260901091226 | 20 | 292 | 16.1 | 0.0 | 0.00 | 0.94 | 0.00 | 72 | 1061.3 |
| 20260901091113 | 20 | 292 | 30.6 | 0.0 | 0.00 | 0.94 | 0.00 | 71 | 1061.3 |
| 20260901091001 | 20 | 247 | 29.0 | 0.0 | 0.00 | 0.94 | 0.00 | 71 | 1061.3 |
| 20260901090856 | 20 | 292 | 8.0 | 0.0 | 0.00 | 0.94 | 0.00 | 71 | 1061.2 |
| 20260901090749 | 21 | 270 | 14.5 | 0.0 | 0.00 | 0.94 | 0.00 | 71 | 1061.3 |
| 20260901090636 | 21 | 292 | 11.3 | 0.0 | 0.00 | 0.94 | 0.00 | 71 | 1061.2 |
| 20260901090524 | 21 | 292 | 22.5 | 0.0 | 0.00 | 0.94 | 0.00 | 70 | 1061.2 |
| 20260901090417 | 21 | 292 | 9.7 | 0.0 | 0.00 | 0.94 | 0.00 | 70 | 1061.2 |
| 20260901090248 | 21 | 292 | 8.0 | 0.0 | 0.00 | 0.94 | 0.00 | 70 | 1061.2 |
| 20260901090137 | 22 | 247 | 20.9 | 0.0 | 0.00 | 0.94 | 0.00 | 69 | 1061.2 |
| 20260901090029 | 22 | 292 | 17.7 | 0.0 | 0.00 | 0.94 | 0.00 | 68 | 1061.2 |
| 20260901085908 | 22 | 247 | 17.7 | 0.0 | 0.00 | 0.94 | 0.00 | 68 | 1061.3 |
| 20260901085757 | 22 | 270 | 6.4 | 0.0 | 0.00 | 0.94 | 0.00 | 67 | 1061.2 |
| 20260901085650 | 23 | 270 | 32.2 | 0.0 | 0.00 | 0.94 | 0.00 | 66 | 1061.2 |
| 20260901085531 | 23 | 292 | 22.5 | 0.0 | 0.05 | 0.94 | 0.00 | 66 | 1061.2 |
| 20260901085425 | 23 | 292 | 33.8 | 0.0 | 0.05 | 0.94 | 0.00 | 67 | 1061.1 |
| 20260901085320 | 22 | 292 | 11.3 | 0.0 | 0.05 | 0.94 | 0.00 | 68 | 1061.1 |
| 20260901085214 | 22 | 292 | 16.1 | 0.0 | 0.05 | 0.94 | 0.00 | 69 | 1061.1 |
| 20260901085045 | 22 | 270 | 19.3 | 0.0 | 0.05 | 0.94 | 0.00 | 71 | 1061.0 |
| 20260901084924 | 21 | 292 | 33.8 | 0.0 | 0.05 | 0.94 | 0.00 | 72 | 1061.1 |
| 20260901084803 | 21 | 315 | 24.1 | 0.0 | 0.05 | 0.94 | 0.00 | 74 | 1061.1 |
| 20260901084658 | 21 | 292 | 6.4 | 0.0 | 0.05 | 0.94 | 0.00 | 75 | 1061.1 |
| 20260901084545 | 20 | 292 | 29.0 | 0.0 | 0.05 | 0.94 | 0.00 | 77 | 1060.9 |
| 20260901084439 | 20 | 337 | 20.9 | 0.0 | 0.05 | 0.94 | 0.00 | 78 | 1061.0 |
| 20260901084325 | 19 | 247 | 14.5 | 0.0 | 0.05 | 0.94 | 0.00 | 78 | 1061.0 |
| 20260901084212 | 19 | 247 | 14.5 | 0.0 | 0.05 | 0.94 | 0.00 | 78 | 1060.9 |
| 20260901084059 | 19 | 247 | 20.9 | 0.0 | 0.05 | 0.94 | 0.00 | 78 | 1061.0 |
| 20260901083945 | 19 | 270 | 8.0 | 0.0 | 0.05 | 0.94 | 0.00 | 77 | 1061.0 |
| 20260901083832 | 19 | 225 | 9.7 | 0.0 | 0.05 | 0.94 | 0.00 | 77 | 1061.0 |
| 20260901083703 | 19 | 315 | 12.9 | 0.0 | 0.05 | 0.94 | 0.00 | 77 | 1060.9 |
| 20260901083552 | 20 | 270 | 9.7 | 0.0 | 0.05 | 0.94 | 0.00 | 77 | 1060.9 |
| 20260901083446 | 20 | 270 | 9.7 | 0.0 | 0.05 | 0.94 | 0.00 | 77 | 1060.8 |
| 20260901083343 | 20 | 292 | 16.1 | 0.0 | 0.05 | 0.94 | 0.00 | 78 | 1060.9 |
| 20260901083221 | 20 | 225 | 11.3 | 0.0 | 0.05 | 0.94 | 0.00 | 79 | 1060.8 |
| 20260901083106 | 20 | 270 | 11.3 | 0.0 | 0.05 | 0.94 | 0.00 | 78 | 1060.9 |
| 20260901082937 | 20 | 270 | 20.9 | 0.0 | 0.05 | 0.94 | 0.00 | 78 | 1060.7 |
| 20260901082821 | 20 | 270 | 14.5 | 0.0 | 0.05 | 0.94 | 0.00 | 78 | 1060.7 |
| 20260901082707 | 20 | 247 | 22.5 | 0.0 | 0.05 | 0.94 | 0.00 | 78 | 1060.6 |
| 20260901082554 | 20 | 270 | 22.5 | 0.0 | 0.05 | 0.94 | 0.00 | 79 | 1060.7 |
| 20260901082449 | 20 | 292 | 12.9 | 0.0 | 0.05 | 0.94 | 0.00 | 79 | 1060.7 |
| 20260901082333 | 20 | 247 | 12.9 | 0.0 | 0.05 | 0.94 | 0.00 | 81 | 1060.7 |
| 20260901082221 | 20 | 247 | 16.1 | 0.0 | 0.05 | 0.94 | 0.00 | 81 | 1060.6 |
| 20260901082115 | 20 | 247 | 12.9 | 0.0 | 0.05 | 0.94 | 0.00 | 81 | 1060.6 |
| 20260901082002 | 20 | 292 | 25.7 | 0.0 | 0.05 | 0.94 | 0.00 | 81 | 1060.7 |
| 20260901081849 | 20 | 292 | 20.9 | 0.0 | 0.05 | 0.94 | 0.00 | 81 | 1060.7 |
| 20260901081738 | 20 | 270 | 19.3 | 0.0 | 0.05 | 0.94 | 0.00 | 81 | 1060.7 |
| 20260901081631 | 20 | 270 | 9.7 | 0.0 | 0.05 | 0.94 | 0.00 | 81 | 1060.6 |
| 20260901081518 | 20 | 315 | 14.5 | 0.0 | 0.05 | 0.94 | 0.00 | 81 | 1060.6 |
| 20260901081413 | 20 | 270 | 20.9 | 0.0 | 0.05 | 0.94 | 0.00 | 81 | 1060.6 |
| 20260901081300 | 19 | 270 | 9.7 | 0.0 | 0.05 | 0.94 | 0.00 | 82 | 1060.6 |
| 20260901081147 | 19 | 292 | 9.7 | 0.0 | 0.05 | 0.94 | 0.00 | 82 | 1060.6 |
| 20260901081034 | 19 | 225 | 14.5 | 0.0 | 0.05 | 0.94 | 0.00 | 82 | 1060.6 |
| 20260901080921 | 19 | 270 | 8.0 | 0.0 | 0.05 | 0.94 | 0.00 | 82 | 1060.6 |
| 20260901080816 | 19 | 270 | 3.2 | 0.0 | 0.05 | 0.94 | 0.00 | 82 | 1060.5 |
| 20260901080711 | 19 | 247 | 6.4 | 0.0 | 0.05 | 0.94 | 0.00 | 82 | 1060.5 |
| 20260901080605 | 19 | 270 | 9.7 | 0.0 | 0.05 | 0.94 | 0.00 | 82 | 1060.5 |
| 20260901080452 | 19 | 270 | 14.5 | 0.0 | 0.05 | 0.94 | 0.00 | 82 | 1060.5 |
| 20260901080339 | 19 | 292 | 8.0 | 0.0 | 0.05 | 0.94 | 0.00 | 82 | 1060.5 |
| 20260901080234 | 19 | 270 | 9.7 | 0.0 | 0.05 | 0.94 | 0.00 | 82 | 1060.5 |
| 20260901080121 | 19 | 270 | 11.3 | 0.0 | 0.05 | 0.94 | 0.00 | 82 | 1060.5 |
| 20260901080008 | 19 | 247 | 9.7 | 0.0 | 0.05 | 0.94 | 0.00 | 81 | 1060.5 |
| 20260901075854 | 20 | 270 | 3.2 | 0.0 | 0.05 | 0.94 | 0.00 | 81 | 1060.5 |
| 20260901075733 | 20 | 247 | 4.8 | 0.0 | 0.05 | 0.94 | 0.00 | 81 | 1060.5 |
| 20260901075621 | 20 | 247 | 14.5 | 0.0 | 0.00 | 0.89 | 0.00 | 81 | 1060.5 |
| 20260901075459 | 20 | 247 | 17.7 | 0.0 | 0.00 | 0.89 | 0.00 | 81 | 1060.5 |
| 20260901075338 | 20 | 292 | 12.9 | 0.0 | 0.00 | 0.89 | 0.00 | 81 | 1060.5 |
| 20260901075233 | 20 | 247 | 12.9 | 0.0 | 0.00 | 0.89 | 0.00 | 83 | 1060.5 |
| 20260901075120 | 20 | 270 | 8.0 | 0.0 | 0.00 | 0.89 | 0.00 | 83 | 1060.5 |
| 20260901075009 | 20 | 292 | 6.4 | 0.0 | 0.00 | 0.89 | 0.00 | 83 | 1060.4 |
| 20260901074903 | 19 | 292 | 0.0 | 0.0 | 0.00 | 0.89 | 0.00 | 83 | 1060.5 |
| 20260901074756 | 19 | 247 | 9.7 | 0.0 | 0.00 | 0.89 | 0.00 | 83 | 1060.5 |
| 20260901074646 | 19 | 270 | 17.7 | 0.0 | 0.00 | 0.89 | 0.00 | 84 | 1060.5 |
| 20260901074539 | 19 | 247 | 11.3 | 0.0 | 0.00 | 0.89 | 0.00 | 84 | 1060.5 |
| 20260901074426 | 19 | 292 | 8.0 | 0.0 | 0.00 | 0.89 | 0.00 | 84 | 1060.4 |
| 20260901074319 | 18 | 247 | 8.0 | 0.0 | 0.00 | 0.89 | 0.00 | 84 | 1060.5 |
| 20260901074020 | 18 | 270 | 8.0 | 0.0 | 0.00 | 0.89 | 0.00 | 84 | 1060.4 |
| 20260901073909 | 18 | 270 | 12.9 | 0.0 | 0.00 | 0.89 | 0.00 | 85 | 1060.4 |
| 20260901073802 | 18 | 247 | 12.9 | 0.0 | 0.00 | 0.89 | 0.00 | 85 | 1060.4 |
| 20260901073633 | 18 | 270 | 9.7 | 0.0 | 0.00 | 0.89 | 0.00 | 84 | 1060.4 |
| 20260901073422 | 18 | 270 | 11.3 | 0.0 | 0.00 | 0.89 | 0.00 | 84 | 1060.3 |
| 20260901073301 | 18 | 247 | 9.7 | 0.0 | 0.00 | 0.89 | 0.00 | 84 | 1060.4 |
| 20260901072753 | 18 | 292 | 183.5 | 0.0 | 0.00 | 0.89 | 0.00 | 81 | 1060.3 |
| 20260901072123 | 19 | 292 | 183.5 | 0.0 | 0.00 | 0.89 | 0.00 | 79 | 1060.2 |
| 20260901071507 | 19 | 270 | 16.1 | 0.0 | 0.00 | 0.89 | 0.00 | 79 | 1060.2 |
| 20260901071337 | 19 | 270 | 6.4 | 0.0 | 0.00 | 0.89 | 0.00 | 78 | 1060.2 |
| 20260901071216 | 20 | 270 | 6.4 | 0.0 | 0.00 | 0.89 | 0.00 | 78 | 1060.2 |
| 20260901071103 | 20 | 270 | 6.4 | 0.0 | 0.00 | 0.89 | 0.00 | 77 | 1060.3 |
| 20260901070949 | 20 | 292 | 9.7 | 0.0 | 0.00 | 0.89 | 0.00 | 76 | 1060.2 |
| 20260901070821 | 20 | 270 | 9.7 | 0.0 | 0.00 | 0.89 | 0.00 | 76 | 1060.2 |
| 20260901070717 | 20 | 270 | 8.0 | 0.0 | 0.00 | 0.89 | 0.00 | 76 | 1060.2 |
| 20260901070610 | 21 | 225 | 0.0 | 0.0 | 0.00 | 0.89 | 0.00 | 76 | 1060.2 |
| 20260901070449 | 21 | 270 | 9.7 | 0.0 | 0.00 | 0.89 | 0.00 | 77 | 1060.2 |
| 20260901070238 | 20 | 247 | 183.5 | 0.0 | 0.00 | 0.89 | 0.00 | 82 | 1060.3 |
| 20260901065608 | 18 | 247 | 183.5 | 0.0 | 0.00 | 0.94 | 0.00 | 84 | 1060.2 |
| 20260901064938 | 19 | 247 | 183.5 | 0.0 | 0.00 | 0.94 | 0.00 | 83 | 1060.2 |
| 20260901064308 | 19 | 247 | 183.5 | 0.0 | 0.00 | 0.94 | 0.00 | 83 | 1060.2 |
| 20260901063702 | 20 | 247 | 183.5 | 0.0 | 0.00 | 0.94 | 0.00 | 83 | 1060.1 |
| 20260901063024 | 20 | 247 | 183.5 | 0.0 | 0.00 | 0.94 | 0.00 | 85 | 1060.1 |
| 20260901062354 | 20 | 247 | 183.5 | 0.0 | 0.00 | 0.94 | 0.00 | 85 | 1060.1 |
| 20260901061751 | 19 | 247 | 183.5 | 0.0 | 0.00 | 0.94 | 0.00 | 90 | 1060.0 |
| 20260901061135 | 18 | 247 | 183.5 | 0.0 | 0.00 | 0.94 | 0.00 | 93 | 1059.9 |
| 20260901060519 | 16 | 247 | 183.5 | 0.0 | 0.05 | 0.94 | 0.00 | 93 | 1059.8 |
| 20260901055841 | 16 | 247 | 183.5 | 0.0 | 0.05 | 0.94 | 0.00 | 93 | 1059.9 |
| 20260901055211 | 16 | 247 | 183.5 | 0.0 | 0.05 | 0.94 | 0.00 | 93 | 1059.8 |
| 20260901054549 | 16 | 247 | 183.5 | 0.0 | 0.05 | 0.94 | 0.00 | 93 | 1059.7 |
| 20260901053912 | 16 | 247 | 183.5 | 0.0 | 0.05 | 0.94 | 0.00 | 92 | 1059.7 |
| 20260901053241 | 16 | 247 | 183.5 | 0.0 | 0.05 | 0.94 | 0.00 | 92 | 1059.6 |
| 20260901052612 | 16 | 247 | 183.5 | 0.0 | 0.05 | 0.94 | 0.00 | 92 | 1059.6 |
| 20260901051942 | 16 | 247 | 183.5 | 0.0 | 0.05 | 0.94 | 0.00 | 92 | 1059.4 |
| 20260901051311 | 16 | 247 | 183.5 | 0.0 | 0.05 | 0.94 | 0.00 | 92 | 1059.4 |
| 20260901050645 | 16 | 247 | 183.5 | 0.0 | 0.00 | 0.89 | 0.00 | 92 | 1059.4 |
| 20260901050044 | 16 | 247 | 183.5 | 0.0 | 0.00 | 0.89 | 0.00 | 92 | 1059.4 |
| 20260901045439 | 16 | 247 | 9.7 | 0.0 | 0.00 | 0.89 | 0.00 | 92 | 1059.3 |
| 20260901045319 | 16 | 270 | 1.6 | 0.0 | 0.00 | 0.89 | 0.00 | 91 | 1059.3 |
| 20260901045214 | 16 | 247 | 8.0 | 0.0 | 0.00 | 0.89 | 0.00 | 91 | 1059.2 |
| 20260901045108 | 16 | 270 | 11.3 | 0.0 | 0.00 | 0.89 | 0.00 | 91 | 1059.3 |
| 20260901044959 | 16 | 225 | 6.4 | 0.0 | 0.00 | 0.89 | 0.00 | 91 | 1059.2 |
| 20260901044845 | 16 | 247 | 9.7 | 0.0 | 0.00 | 0.89 | 0.00 | 91 | 1059.2 |
| 20260901044738 | 16 | 270 | 8.0 | 0.0 | 0.00 | 0.89 | 0.00 | 91 | 1059.2 |
| 20260901044624 | 16 | 270 | 9.7 | 0.0 | 0.00 | 0.89 | 0.00 | 91 | 1059.2 |
| 20260901044502 | 16 | 270 | 11.3 | 0.0 | 0.00 | 0.89 | 0.00 | 91 | 1059.3 |
| 20260901044347 | 16 | 270 | 6.4 | 0.0 | 0.00 | 0.89 | 0.00 | 91 | 1059.3 |
| 20260901044234 | 16 | 270 | 0.0 | 0.0 | 0.00 | 0.89 | 0.00 | 91 | 1059.4 |
| 20260901044129 | 16 | 270 | 4.8 | 0.0 | 0.00 | 0.89 | 0.00 | 91 | 1059.3 |
| 20260901044020 | 16 | 247 | 1.6 | 0.0 | 0.00 | 0.89 | 0.00 | 91 | 1059.3 |
| 20260901043859 | 16 | 225 | 4.8 | 0.0 | 0.00 | 0.89 | 0.00 | 91 | 1059.2 |
| 20260901043743 | 16 | 270 | 8.0 | 0.0 | 0.00 | 0.89 | 0.00 | 91 | 1059.3 |
| 20260901043623 | 16 | 247 | 3.2 | 0.0 | 0.00 | 0.89 | 0.00 | 91 | 1059.2 |
| 20260901043511 | 16 | 247 | 3.2 | 0.0 | 0.00 | 0.89 | 0.00 | 91 | 1059.3 |
| 20260901043403 | 16 | 225 | 3.2 | 0.0 | 0.00 | 0.89 | 0.00 | 90 | 1059.2 |
| 20260901043250 | 16 | 247 | 0.0 | 0.0 | 0.00 | 0.89 | 0.00 | 90 | 1059.2 |
| 20260901043147 | 16 | 270 | 1.6 | 0.0 | 0.00 | 0.89 | 0.00 | 90 | 1059.3 |
| 20260901043038 | 16 | 270 | 6.4 | 0.0 | 0.00 | 0.89 | 0.00 | 90 | 1059.3 |
| 20260901042916 | 16 | 270 | 6.4 | 0.0 | 0.00 | 0.89 | 0.00 | 90 | 1059.2 |
| 20260901042754 | 16 | 247 | 0.0 | 0.0 | 0.00 | 0.89 | 0.00 | 90 | 1059.2 |
| 20260901042633 | 16 | 270 | 4.8 | 0.0 | 0.00 | 0.89 | 0.00 | 89 | 1059.2 |
| 20260901042512 | 16 | 270 | 1.6 | 0.0 | 0.00 | 0.89 | 0.00 | 89 | 1059.2 |
| 20260901042351 | 16 | 247 | 6.4 | 0.0 | 0.00 | 0.89 | 0.00 | 89 | 1059.1 |
| 20260901042237 | 16 | 202 | 0.0 | 0.0 | 0.00 | 0.89 | 0.00 | 89 | 1059.2 |
| 20260901042124 | 16 | 247 | 0.0 | 0.0 | 0.00 | 0.89 | 0.00 | 89 | 1059.2 |
| 20260901042011 | 16 | 225 | 4.8 | 0.0 | 0.00 | 0.89 | 0.00 | 89 | 1059.2 |
| 20260901041852 | 16 | 202 | 8.0 | 0.0 | 0.00 | 0.89 | 0.00 | 89 | 1059.2 |
| 20260901041745 | 16 | 202 | 0.0 | 0.0 | 0.00 | 0.89 | 0.00 | 89 | 1059.2 |
| 20260901041632 | 16 | 225 | 0.0 | 0.0 | 0.00 | 0.89 | 0.00 | 88 | 1059.1 |
| 20260901041510 | 16 | 225 | 0.0 | 0.0 | 0.00 | 0.89 | 0.00 | 88 | 1059.2 |
| 20260901041350 | 16 | 247 | 0.0 | 0.0 | 0.00 | 0.89 | 0.00 | 88 | 1059.2 |
| 20260901041244 | 16 | 247 | 0.0 | 0.0 | 0.00 | 0.89 | 0.00 | 88 | 1059.1 |
| 20260901041130 | 16 | 247 | 0.0 | 0.0 | 0.00 | 0.89 | 0.00 | 88 | 1059.2 |
| 20260901041011 | 16 | 270 | 3.2 | 0.0 | 0.00 | 0.89 | 0.00 | 88 | 1059.2 |
| 20260901040904 | 16 | 247 | 8.0 | 0.0 | 0.00 | 0.89 | 0.00 | 88 | 1059.2 |
| 20260901040755 | 16 | 247 | 4.8 | 0.0 | 0.00 | 0.89 | 0.00 | 88 | 1059.2 |
| 20260901040630 | 16 | 270 | 11.3 | 0.0 | 0.00 | 0.89 | 0.00 | 88 | 1059.2 |
| 20260901040508 | 17 | 292 | 4.8 | 0.0 | 0.00 | 0.89 | 0.00 | 87 | 1059.2 |
| 20260901040340 | 17 | 225 | 3.2 | 0.0 | 0.00 | 0.89 | 0.00 | 87 | 1059.2 |
| 20260901040219 | 17 | 292 | 3.2 | 0.0 | 0.00 | 0.89 | 0.00 | 87 | 1059.1 |
| 20260901040106 | 16 | 292 | 9.7 | 0.0 | 0.00 | 0.89 | 0.00 | 86 | 1059.1 |
| 20260901035953 | 16 | 247 | 3.2 | 0.0 | 0.00 | 0.89 | 0.00 | 86 | 1059.1 |
| 20260901035839 | 16 | 247 | 12.9 | 0.0 | 0.00 | 0.89 | 0.00 | 85 | 1059.0 |
| 20260901035718 | 16 | 270 | 9.7 | 0.0 | 0.00 | 0.89 | 0.00 | 85 | 1059.0 |
| 20260901035603 | 16 | 270 | 11.3 | 0.0 | 0.00 | 0.89 | 0.00 | 86 | 1059.0 |
| 20260901035448 | 16 | 292 | 0.0 | 0.0 | 0.00 | 0.89 | 0.00 | 86 | 1059.0 |
| 20260901035320 | 17 | 315 | 6.4 | 0.0 | 0.00 | 0.89 | 0.00 | 86 | 1059.0 |
| 20260901035207 | 17 | 292 | 8.0 | 0.0 | 0.00 | 0.89 | 0.00 | 86 | 1059.0 |
| 20260901035102 | 17 | 270 | 4.8 | 0.0 | 0.00 | 0.89 | 0.00 | 87 | 1058.9 |
| 20260901034941 | 17 | 270 | 0.0 | 0.0 | 0.00 | 0.89 | 0.00 | 87 | 1058.9 |
| 20260901034829 | 17 | 292 | 8.0 | 0.0 | 0.00 | 0.89 | 0.00 | 87 | 1059.0 |
| 20260901034700 | 17 | 292 | 4.8 | 0.0 | 0.00 | 0.89 | 0.00 | 87 | 1059.0 |
| 20260901034539 | 17 | 270 | 8.0 | 0.0 | 0.00 | 0.89 | 0.00 | 87 | 1059.0 |
| 20260901034416 | 17 | 270 | 1.6 | 0.0 | 0.00 | 0.89 | 0.00 | 87 | 1059.0 |
| 20260901034311 | 17 | 315 | 6.4 | 0.0 | 0.00 | 0.89 | 0.00 | 87 | 1059.0 |
| 20260901034157 | 17 | 270 | 3.2 | 0.0 | 0.00 | 0.89 | 0.00 | 87 | 1059.0 |
| 20260901034044 | 17 | 270 | 6.4 | 0.0 | 0.00 | 0.89 | 0.00 | 87 | 1058.9 |
| 20260901033917 | 17 | 270 | 0.0 | 0.0 | 0.00 | 0.89 | 0.00 | 87 | 1059.0 |
| 20260901033812 | 17 | 270 | 8.0 | 0.0 | 0.00 | 0.89 | 0.00 | 86 | 1059.0 |
| 20260901033704 | 17 | 270 | 9.7 | 0.0 | 0.00 | 0.89 | 0.00 | 86 | 1059.0 |
| 20260901033552 | 17 | 270 | 6.4 | 0.0 | 0.00 | 0.89 | 0.00 | 86 | 1059.0 |
| 20260901033438 | 17 | 270 | 8.0 | 0.0 | 0.00 | 0.89 | 0.00 | 86 | 1059.0 |
| 20260901033317 | 17 | 270 | 0.0 | 0.0 | 0.00 | 0.89 | 0.00 | 86 | 1059.0 |
| 20260901033205 | 17 | 292 | 6.4 | 0.0 | 0.00 | 0.89 | 0.00 | 85 | 1059.0 |
| 20260901033057 | 17 | 292 | 9.7 | 0.0 | 0.00 | 0.89 | 0.00 | 85 | 1059.0 |
| 20260901032952 | 17 | 292 | 9.7 | 0.0 | 0.00 | 0.89 | 0.00 | 85 | 1059.0 |
| 20260901032845 | 17 | 292 | 9.7 | 0.0 | 0.00 | 0.89 | 0.00 | 85 | 1059.0 |
| 20260901032716 | 17 | 292 | 9.7 | 0.0 | 0.00 | 0.89 | 0.00 | 85 | 1058.9 |
| 20260901032603 | 17 | 315 | 0.0 | 0.0 | 0.00 | 0.89 | 0.00 | 85 | 1058.9 |
| 20260901032456 | 17 | 315 | 8.0 | 0.0 | 0.00 | 0.89 | 0.00 | 85 | 1058.9 |
| 20260901032335 | 17 | 292 | 4.8 | 0.0 | 0.00 | 0.89 | 0.00 | 85 | 1059.0 |
| 20260901032223 | 17 | 292 | 9.7 | 0.0 | 0.00 | 0.89 | 0.00 | 85 | 1058.9 |
| 20260901032116 | 17 | 292 | 11.3 | 0.0 | 0.00 | 0.89 | 0.00 | 85 | 1058.9 |
| 20260901032003 | 17 | 247 | 0.0 | 0.0 | 0.00 | 0.89 | 0.00 | 85 | 1058.9 |
| 20260901031850 | 17 | 270 | 3.2 | 0.0 | 0.00 | 0.89 | 0.00 | 85 | 1058.9 |
| 20260901031736 | 17 | 337 | 9.7 | 0.0 | 0.00 | 0.89 | 0.00 | 85 | 1058.9 |
| 20260901031623 | 17 | 270 | 8.0 | 0.0 | 0.00 | 0.89 | 0.00 | 86 | 1058.8 |
| 20260901031509 | 17 | 292 | 9.7 | 0.0 | 0.00 | 0.89 | 0.00 | 86 | 1058.8 |
| 20260901031403 | 17 | 0 | 9.7 | 0.0 | 0.00 | 0.89 | 0.00 | 85 | 1058.9 |
| 20260901031256 | 17 | 247 | 4.8 | 0.0 | 0.00 | 0.89 | 0.00 | 85 | 1058.9 |
| 20260901031143 | 17 | 292 | 0.0 | 0.0 | 0.00 | 0.89 | 0.00 | 85 | 1058.8 |
| 20260901031021 | 17 | 270 | 4.8 | 0.0 | 0.00 | 0.89 | 0.00 | 85 | 1058.8 |
| 20260901030908 | 17 | 315 | 3.2 | 0.0 | 0.00 | 0.89 | 0.00 | 85 | 1058.8 |
| 20260901030802 | 17 | 315 | 9.7 | 0.0 | 0.00 | 0.89 | 0.00 | 85 | 1058.8 |
| 20260901030657 | 17 | 337 | 4.8 | 0.0 | 0.00 | 0.89 | 0.00 | 85 | 1058.8 |
| 20260901030543 | 17 | 315 | 3.2 | 0.0 | 0.00 | 0.89 | 0.00 | 85 | 1058.8 |
| 20260901030431 | 17 | 315 | 6.4 | 0.0 | 0.00 | 0.89 | 0.00 | 85 | 1058.8 |
| 20260901030326 | 17 | 292 | 4.8 | 0.0 | 0.00 | 0.89 | 0.00 | 85 | 1058.8 |
| 20260901030211 | 17 | 337 | 8.0 | 0.0 | 0.00 | 0.89 | 0.00 | 85 | 1058.7 |
| 20260901030058 | 17 | 292 | 6.4 | 0.0 | 0.00 | 0.89 | 0.00 | 85 | 1058.8 |
| 20260901025953 | 17 | 292 | 4.8 | 0.0 | 0.00 | 0.89 | 0.00 | 85 | 1058.8 |
| 20260901025847 | 17 | 292 | 14.5 | 0.0 | 0.00 | 0.89 | 0.00 | 85 | 1058.7 |
| 20260901025742 | 17 | 337 | 8.0 | 0.0 | 0.00 | 0.89 | 0.00 | 85 | 1058.8 |
| 20260901025621 | 17 | 292 | 3.2 | 0.0 | 0.00 | 0.89 | 0.00 | 85 | 1058.8 |
| 20260901025508 | 17 | 247 | 8.0 | 0.0 | 0.00 | 0.89 | 0.00 | 85 | 1058.9 |
| 20260901025354 | 17 | 247 | 9.7 | 0.0 | 0.00 | 0.89 | 0.00 | 86 | 1058.9 |
| 20260901025241 | 17 | 315 | 12.9 | 0.0 | 0.00 | 0.89 | 0.00 | 86 | 1058.9 |
| 20260901025119 | 17 | 315 | 14.5 | 0.0 | 0.00 | 0.89 | 0.00 | 86 | 1058.9 |
| 20260901025006 | 17 | 315 | 12.9 | 0.0 | 0.00 | 0.89 | 0.00 | 86 | 1058.9 |
| 20260901024844 | 17 | 292 | 11.3 | 0.0 | 0.00 | 0.89 | 0.00 | 86 | 1058.8 |
| 20260901024726 | 17 | 337 | 6.4 | 0.0 | 0.00 | 0.89 | 0.00 | 86 | 1058.9 |
| 20260901024619 | 17 | 315 | 6.4 | 0.0 | 0.00 | 0.89 | 0.00 | 86 | 1058.8 |
| 20260901024505 | 17 | 337 | 11.3 | 0.0 | 0.00 | 0.89 | 0.00 | 86 | 1058.8 |
| 20260901024344 | 17 | 292 | 4.8 | 0.0 | 0.00 | 0.89 | 0.00 | 85 | 1058.9 |
| 20260901024231 | 17 | 315 | 11.3 | 0.0 | 0.00 | 0.89 | 0.00 | 85 | 1058.9 |
| 20260901024127 | 17 | 315 | 4.8 | 0.0 | 0.00 | 0.89 | 0.00 | 85 | 1058.8 |
| 20260901024013 | 17 | 270 | 11.3 | 0.0 | 0.00 | 0.89 | 0.00 | 85 | 1058.8 |
| 20260901023901 | 17 | 270 | 12.9 | 0.0 | 0.00 | 0.89 | 0.00 | 85 | 1058.9 |
| 20260901023755 | 17 | 247 | 9.7 | 0.0 | 0.00 | 0.89 | 0.00 | 85 | 1058.9 |
| 20260901023633 | 17 | 315 | 9.7 | 0.0 | 0.00 | 0.89 | 0.00 | 84 | 1058.8 |
| 20260901023527 | 17 | 315 | 9.7 | 0.0 | 0.00 | 0.89 | 0.00 | 84 | 1058.8 |
| 20260901023421 | 17 | 337 | 6.4 | 0.0 | 0.00 | 0.89 | 0.00 | 84 | 1058.8 |
| 20260901023315 | 17 | 292 | 12.9 | 0.0 | 0.00 | 0.89 | 0.00 | 84 | 1058.9 |
| 20260901023209 | 17 | 270 | 3.2 | 0.0 | 0.00 | 0.89 | 0.00 | 84 | 1058.9 |
| 20260901023021 | 17 | 315 | 183.5 | 0.0 | 0.00 | 0.89 | 0.00 | 84 | 1058.7 |
| 20260901022407 | 17 | 315 | 183.5 | 0.0 | 0.00 | 0.89 | 0.00 | 84 | 1058.8 |
| 20260901021752 | 17 | 315 | 183.5 | 0.0 | 0.00 | 0.89 | 0.00 | 84 | 1058.8 |
| 20260901021200 | 17 | 315 | 183.5 | 0.0 | 0.00 | 0.89 | 0.00 | 84 | 1058.7 |
| 20260901020543 | 17 | 315 | 183.5 | 0.0 | 0.00 | 0.89 | 0.00 | 85 | 1058.7 |
| 20260901015956 | 17 | 315 | 183.5 | 0.0 | 0.00 | 0.94 | 0.00 | 85 | 1058.7 |
| 20260901015412 | 17 | 315 | 183.5 | 0.0 | 0.00 | 0.94 | 0.00 | 85 | 1058.7 |
| 20260901014808 | 17 | 315 | 183.5 | 0.0 | 0.00 | 0.94 | 0.00 | 85 | 1058.7 |
| 20260901014144 | 17 | 315 | 183.5 | 0.0 | 0.00 | 0.94 | 0.00 | 85 | 1058.7 |
| 20260901013530 | 17 | 315 | 183.5 | 0.0 | 0.00 | 0.94 | 0.00 | 86 | 1058.5 |
| 20260901012916 | 17 | 315 | 183.5 | 0.0 | 0.00 | 0.94 | 0.00 | 85 | 1058.3 |
| 20260901012309 | 17 | 315 | 183.5 | 0.0 | 0.00 | 0.94 | 0.00 | 86 | 1058.4 |
| 20260901011704 | 17 | 315 | 183.5 | 0.0 | 0.00 | 0.94 | 0.00 | 86 | 1058.4 |
| 20260901011050 | 17 | 315 | 183.5 | 0.0 | 0.00 | 0.94 | 0.00 | 86 | 1058.4 |
| 20260901010443 | 17 | 315 | 183.5 | 0.0 | 0.00 | 0.94 | 0.00 | 86 | 1058.3 |
| 20260901005514 | 17 | 315 | 183.5 | 0.0 | 0.00 | 0.99 | 0.00 | 86 | 1058.2 |
| 20260901004901 | 17 | 315 | 183.5 | 0.0 | 0.00 | 0.99 | 0.00 | 87 | 1058.2 |
| 20260901004246 | 17 | 315 | 183.5 | 0.0 | 0.00 | 0.99 | 0.00 | 87 | 1058.2 |
| 20260901003632 | 17 | 315 | 183.5 | 0.0 | 0.00 | 0.99 | 0.00 | 87 | 1058.1 |
| 20260901003019 | 17 | 315 | 183.5 | 0.0 | 0.00 | 0.99 | 0.00 | 87 | 1058.1 |
| 20260901002405 | 17 | 315 | 183.5 | 0.0 | 0.00 | 0.99 | 0.00 | 88 | 1058.1 |
| 20260901001745 | 17 | 315 | 183.5 | 0.0 | 0.00 | 0.99 | 0.00 | 89 | 1058.1 |
| 20260901001121 | 17 | 315 | 183.5 | 0.0 | 0.00 | 0.99 | 0.00 | 90 | 1058.0 |
| 20260901000516 | 17 | 315 | 183.5 | 0.0 | 0.00 | 0.99 | 0.00 | 90 | 1058.0 |
| 20260831235907 | 17 | 315 | 183.5 | 0.0 | 0.05 | 0.99 | 0.00 | 90 | 1057.9 |
| 20260831235251 | 17 | 315 | 183.5 | 0.0 | 0.05 | 0.99 | 0.00 | 90 | 1058.0 |
| 20260831234638 | 16 | 315 | 183.5 | 0.0 | 0.05 | 0.99 | 0.00 | 90 | 1057.9 |
| 20260831234041 | 16 | 315 | 183.5 | 0.0 | 0.05 | 0.99 | 0.00 | 90 | 1057.9 |
| 20260831233411 | 16 | 315 | 183.5 | 0.0 | 0.05 | 0.99 | 0.00 | 90 | 1057.8 |
| 20260831232749 | 16 | 315 | 183.5 | 0.0 | 0.05 | 0.99 | 0.00 | 89 | 1057.8 |
| 20260831232111 | 16 | 315 | 183.5 | 0.0 | 0.05 | 0.99 | 0.00 | 89 | 1057.9 |
| 20260831231459 | 16 | 315 | 183.5 | 0.0 | 0.05 | 0.99 | 0.00 | 89 | 1057.8 |
| 20260831230844 | 16 | 315 | 183.5 | 0.0 | 0.05 | 0.99 | 0.00 | 89 | 1057.8 |
| 20260831230254 | 17 | 315 | 183.5 | 0.0 | 0.05 | 0.99 | 0.00 | 91 | 1057.8 |
| 20260831225646 | 16 | 315 | 183.5 | 0.0 | 0.00 | 0.94 | 0.00 | 91 | 1057.6 |
| 20260831225038 | 16 | 315 | 183.5 | 0.0 | 0.00 | 0.94 | 0.00 | 91 | 1057.6 |
| 20260831224432 | 16 | 315 | 183.5 | 0.0 | 0.00 | 0.94 | 0.00 | 92 | 1057.5 |
| 20260831223833 | 16 | 315 | 183.5 | 0.0 | 0.00 | 0.94 | 0.00 | 92 | 1057.5 |
| 20260831223228 | 16 | 315 | 183.5 | 0.0 | 0.00 | 0.94 | 0.00 | 92 | 1057.5 |
| 20260831222606 | 16 | 315 | 183.5 | 0.0 | 0.00 | 0.94 | 0.00 | 91 | 1057.4 |
| 20260831222000 | 16 | 315 | 183.5 | 0.0 | 0.00 | 0.94 | 0.00 | 91 | 1057.4 |
| 20260831221416 | 16 | 315 | 183.5 | 0.0 | 0.00 | 0.94 | 0.00 | 91 | 1057.3 |
| 20260831220833 | 16 | 315 | 8.0 | 0.0 | 0.00 | 0.94 | 0.00 | 91 | 1057.3 |
| 20260831220701 | 16 | 292 | 6.4 | 0.0 | 0.00 | 0.94 | 0.00 | 91 | 1057.4 |
| 20260831220556 | 16 | 247 | 12.9 | 0.0 | 0.00 | 0.94 | 0.00 | 91 | 1057.4 |
| 20260831220449 | 16 | 292 | 9.7 | 0.0 | 0.00 | 0.94 | 0.00 | 91 | 1057.4 |
| 20260831220343 | 16 | 270 | 4.8 | 0.0 | 0.00 | 0.94 | 0.00 | 91 | 1057.4 |
| 20260831220222 | 16 | 292 | 0.0 | 0.0 | 0.00 | 0.94 | 0.00 | 91 | 1057.3 |
| 20260831220108 | 16 | 315 | 8.0 | 0.0 | 0.00 | 0.94 | 0.00 | 90 | 1057.4 |
| 20260831215954 | 16 | 292 | 11.3 | 0.0 | 0.00 | 0.94 | 0.00 | 90 | 1057.3 |
| 20260831215848 | 16 | 315 | 4.8 | 0.0 | 0.00 | 0.94 | 0.00 | 90 | 1057.5 |
| 20260831215743 | 16 | 0 | 11.3 | 0.0 | 0.00 | 0.94 | 0.00 | 90 | 1057.4 |
| 20260831215621 | 16 | 315 | 11.3 | 0.0 | 0.00 | 0.94 | 0.00 | 90 | 1057.5 |
| 20260831215404 | 17 | 315 | 20.9 | 0.0 | 0.00 | 0.94 | 0.00 | 91 | 1057.5 |
| 20260831215207 | 16 | 292 | 12.9 | 0.0 | 0.00 | 0.94 | 0.00 | 92 | 1057.4 |
| 20260831215038 | 16 | 292 | 8.0 | 0.0 | 0.00 | 0.94 | 0.00 | 92 | 1057.3 |
| 20260831214844 | 16 | 247 | 16.1 | 0.0 | 0.00 | 0.94 | 0.00 | 92 | 1057.3 |
| 20260831214733 | 16 | 315 | 4.8 | 0.0 | 0.00 | 0.94 | 0.00 | 92 | 1057.3 |
| 20260831214618 | 16 | 337 | 6.4 | 0.0 | 0.00 | 0.94 | 0.00 | 92 | 1057.3 |
| 20260831214505 | 16 | 292 | 9.7 | 0.0 | 0.00 | 0.94 | 0.00 | 92 | 1057.4 |
| 20260831214354 | 16 | 292 | 8.0 | 0.0 | 0.00 | 0.94 | 0.00 | 92 | 1057.3 |
| 20260831214248 | 16 | 315 | 6.4 | 0.0 | 0.00 | 0.94 | 0.00 | 92 | 1057.3 |
| 20260831214135 | 16 | 292 | 11.3 | 0.0 | 0.00 | 0.94 | 0.00 | 92 | 1057.2 |
| 20260831214029 | 16 | 292 | 12.9 | 0.0 | 0.00 | 0.94 | 0.00 | 92 | 1057.1 |
| 20260831213924 | 16 | 337 | 4.8 | 0.0 | 0.00 | 0.94 | 0.00 | 92 | 1057.1 |
| 20260831213811 | 16 | 315 | 4.8 | 0.0 | 0.00 | 0.94 | 0.00 | 92 | 1057.1 |
| 20260831213704 | 16 | 292 | 6.4 | 0.0 | 0.00 | 0.94 | 0.00 | 92 | 1057.1 |
| 20260831213546 | 16 | 292 | 6.4 | 0.0 | 0.00 | 0.94 | 0.00 | 92 | 1057.2 |
| 20260831213441 | 16 | 292 | 6.4 | 0.0 | 0.00 | 0.94 | 0.00 | 92 | 1057.2 |
| 20260831213336 | 16 | 292 | 6.4 | 0.0 | 0.00 | 0.94 | 0.00 | 92 | 1057.1 |
| 20260831213230 | 16 | 315 | 9.7 | 0.0 | 0.00 | 0.94 | 0.00 | 92 | 1057.1 |
| 20260831213116 | 16 | 315 | 6.4 | 0.0 | 0.00 | 0.94 | 0.00 | 92 | 1057.2 |
| 20260831212947 | 16 | 270 | 11.3 | 0.0 | 0.00 | 0.94 | 0.00 | 92 | 1057.1 |
| 20260831212834 | 16 | 315 | 6.4 | 0.0 | 0.00 | 0.94 | 0.00 | 92 | 1057.1 |
| 20260831212721 | 16 | 292 | 8.0 | 0.0 | 0.00 | 0.94 | 0.00 | 92 | 1057.1 |
| 20260831212559 | 16 | 0 | 6.4 | 0.0 | 0.00 | 0.94 | 0.00 | 92 | 1057.1 |
| 20260831212430 | 16 | 292 | 11.3 | 0.0 | 0.00 | 0.94 | 0.00 | 92 | 1057.1 |
| 20260831212311 | 16 | 337 | 4.8 | 0.0 | 0.00 | 0.94 | 0.00 | 92 | 1057.1 |
| 20260831212205 | 16 | 292 | 3.2 | 0.0 | 0.00 | 0.94 | 0.00 | 92 | 1057.1 |
| 20260831212059 | 16 | 315 | 0.0 | 0.0 | 0.00 | 0.94 | 0.00 | 92 | 1057.1 |
| 20260831211946 | 16 | 337 | 6.4 | 0.0 | 0.00 | 0.94 | 0.00 | 92 | 1057.0 |
| 20260831211824 | 16 | 315 | 1.6 | 0.0 | 0.00 | 0.94 | 0.00 | 92 | 1057.1 |
| 20260831211704 | 16 | 292 | 6.4 | 0.0 | 0.00 | 0.94 | 0.00 | 92 | 1057.0 |
| 20260831211601 | 16 | 292 | 4.8 | 0.0 | 0.00 | 0.94 | 0.00 | 92 | 1057.0 |
| 20260831211453 | 16 | 292 | 9.7 | 0.0 | 0.00 | 0.94 | 0.00 | 92 | 1057.0 |
| 20260831211341 | 16 | 270 | 3.2 | 0.0 | 0.00 | 0.94 | 0.00 | 92 | 1057.0 |
| 20260831211219 | 16 | 292 | 3.2 | 0.0 | 0.00 | 0.94 | 0.00 | 92 | 1056.9 |
| 20260831211106 | 16 | 292 | 9.7 | 0.0 | 0.00 | 0.94 | 0.00 | 92 | 1056.9 |
| 20260831210938 | 16 | 337 | 9.7 | 0.0 | 0.00 | 0.94 | 0.00 | 92 | 1056.9 |
| 20260831210831 | 16 | 292 | 3.2 | 0.0 | 0.00 | 0.94 | 0.00 | 92 | 1056.9 |
| 20260831210710 | 16 | 337 | 4.8 | 0.0 | 0.00 | 0.94 | 0.00 | 92 | 1056.9 |
| 20260831210550 | 16 | 315 | 1.6 | 0.0 | 0.00 | 0.94 | 0.00 | 92 | 1056.8 |
| 20260831210437 | 16 | 270 | 6.4 | 0.0 | 0.00 | 0.94 | 0.00 | 92 | 1056.8 |
| 20260831210332 | 16 | 315 | 6.4 | 0.0 | 0.00 | 0.94 | 0.00 | 92 | 1056.8 |
| 20260831210226 | 16 | 270 | 6.4 | 0.0 | 0.00 | 0.94 | 0.00 | 92 | 1056.8 |
| 20260831210113 | 16 | 292 | 9.7 | 0.0 | 0.00 | 0.94 | 0.00 | 92 | 1056.9 |
| 20260831205953 | 16 | 270 | 6.4 | 0.0 | 0.00 | 0.94 | 0.00 | 93 | 1056.8 |
| 20260831205838 | 16 | 315 | 3.2 | 0.0 | 0.00 | 0.94 | 0.00 | 92 | 1056.7 |
| 20260831205725 | 16 | 292 | 6.4 | 0.0 | 0.00 | 0.94 | 0.00 | 92 | 1056.7 |
| 20260831205604 | 16 | 292 | 3.2 | 0.0 | 0.00 | 0.94 | 0.00 | 92 | 1056.7 |
| 20260831205452 | 16 | 315 | 4.8 | 0.0 | 0.00 | 0.94 | 0.00 | 92 | 1056.8 |
| 20260831205339 | 16 | 315 | 11.3 | 0.0 | 0.00 | 0.94 | 0.00 | 92 | 1056.8 |
| 20260831205217 | 16 | 315 | 8.0 | 0.0 | 0.00 | 0.94 | 0.00 | 92 | 1056.7 |
| 20260831205055 | 16 | 270 | 4.8 | 0.0 | 0.00 | 0.94 | 0.00 | 92 | 1056.7 |
| 20260831204934 | 16 | 292 | 4.8 | 0.0 | 0.00 | 0.94 | 0.00 | 93 | 1056.7 |
| 20260831204815 | 16 | 315 | 4.8 | 0.0 | 0.00 | 0.94 | 0.00 | 93 | 1056.7 |
| 20260831204708 | 16 | 292 | 3.2 | 0.0 | 0.00 | 0.94 | 0.00 | 93 | 1056.7 |
| 20260831204556 | 16 | 315 | 4.8 | 0.0 | 0.00 | 0.94 | 0.00 | 93 | 1056.6 |
| 20260831204449 | 16 | 292 | 9.7 | 0.0 | 0.00 | 0.94 | 0.00 | 93 | 1056.6 |
| 20260831204330 | 16 | 337 | 12.9 | 0.0 | 0.00 | 0.94 | 0.00 | 93 | 1056.6 |
| 20260831204200 | 16 | 0 | 0.0 | 0.0 | 0.00 | 0.94 | 0.00 | 93 | 1056.6 |
| 20260831204054 | 16 | 22 | 3.2 | 0.0 | 0.00 | 0.94 | 0.00 | 93 | 1056.6 |
| 20260831203941 | 16 | 247 | 3.2 | 0.0 | 0.05 | 0.94 | 0.00 | 93 | 1056.5 |
| 20260831203819 | 16 | 315 | 19.3 | 0.0 | 0.05 | 0.94 | 0.00 | 93 | 1056.4 |
| 20260831203650 | 16 | 247 | 6.4 | 0.0 | 0.05 | 0.94 | 0.00 | 93 | 1056.5 |
| 20260831203529 | 16 | 292 | 9.7 | 0.0 | 0.05 | 0.94 | 0.00 | 93 | 1056.4 |
| 20260831203407 | 16 | 270 | 4.8 | 0.0 | 0.05 | 0.94 | 0.00 | 93 | 1056.4 |
| 20260831203239 | 16 | 270 | 9.7 | 0.0 | 0.05 | 0.94 | 0.00 | 93 | 1056.4 |
| 20260831203117 | 16 | 315 | 11.3 | 0.0 | 0.05 | 0.94 | 0.00 | 93 | 1056.3 |
| 20260831203007 | 16 | 292 | 9.7 | 0.0 | 0.05 | 0.94 | 0.00 | 93 | 1056.4 |
| 20260831202900 | 16 | 315 | 3.2 | 0.0 | 0.05 | 0.94 | 0.00 | 93 | 1056.3 |
| 20260831202754 | 16 | 292 | 12.9 | 0.0 | 0.05 | 0.94 | 0.00 | 93 | 1056.3 |
| 20260831202641 | 16 | 315 | 6.4 | 0.0 | 0.05 | 0.94 | 0.00 | 93 | 1056.3 |
| 20260831202519 | 16 | 337 | 6.4 | 0.0 | 0.05 | 0.94 | 0.00 | 93 | 1056.3 |
| 20260831202350 | 16 | 315 | 14.5 | 0.0 | 0.10 | 0.94 | 0.00 | 93 | 1056.3 |
| 20260831202229 | 16 | 315 | 11.3 | 0.0 | 0.10 | 0.94 | 0.00 | 93 | 1056.2 |
| 20260831202108 | 16 | 315 | 4.8 | 0.0 | 0.10 | 0.94 | 0.00 | 93 | 1056.2 |
| 20260831201946 | 16 | 270 | 14.5 | 0.0 | 0.10 | 0.94 | 0.00 | 93 | 1056.2 |
| 20260831201819 | 16 | 292 | 6.4 | 0.0 | 0.10 | 0.94 | 0.00 | 93 | 1056.2 |
| 20260831201704 | 16 | 315 | 4.8 | 0.0 | 0.10 | 0.94 | 0.00 | 93 | 1056.2 |
| 20260831201543 | 16 | 292 | 9.7 | 0.0 | 0.10 | 0.94 | 0.00 | 93 | 1056.2 |
| 20260831201429 | 16 | 315 | 9.7 | 0.0 | 0.10 | 0.94 | 0.00 | 93 | 1056.0 |